Wetterdaten: Sonntag, 22.11.2015
Datum Zeit Temp. Aussen Temp. o. S. +5cm Feuchte Auss BlattFeu 1 Luftdruck Regen Sonnenschein Regendauer Solar Windben Empfang
22.11.2015 00:00 2,3 C 1,1 C 0,6 C 95 % 15 lf 1001,9 hPa 0,0 l/m 0 min 0 min 0 W/m 8,4 km/h (2 Bft) 97,87 %
22.11.2015 00:02 2,2 C 1,1 C 0,6 C 94 % 15 lf 1002,0 hPa 0,0 l/m 0 min 0 min 0 W/m 8,4 km/h (2 Bft) 100,00 %
22.11.2015 00:06 2,2 C 1,1 C 0,6 C 94 % 15 lf 1002,0 hPa 0,0 l/m 0 min 0 min 0 W/m 10,5 km/h (2 Bft) 97,87 %
22.11.2015 00:08 2,1 C 1,1 C 0,6 C 94 % 15 lf 1002,1 hPa 0,0 l/m 0 min 0 min 0 W/m 10,5 km/h (2 Bft) 100,00 %
22.11.2015 00:10 2,1 C 1,1 C 0,0 C 94 % 15 lf 1002,2 hPa 0,0 l/m 0 min 0 min 0 W/m 8,4 km/h (2 Bft) 97,87 %
22.11.2015 00:12 2,1 C 1,1 C 0,0 C 94 % 15 lf 1002,2 hPa 0,0 l/m 0 min 0 min 0 W/m 10,5 km/h (2 Bft) 97,87 %
22.11.2015 00:14 2,1 C 1,1 C 0,0 C 94 % 15 lf 1002,2 hPa 0,0 l/m 0 min 0 min 0 W/m 8,4 km/h (2 Bft) 97,87 %
22.11.2015 00:16 2,1 C 1,1 C 0,0 C 94 % 15 lf 1002,2 hPa 0,0 l/m 0 min 0 min 0 W/m 10,5 km/h (2 Bft) 97,87 %
22.11.2015 00:18 2,0 C 1,1 C 0,0 C 94 % 15 lf 1002,2 hPa 0,0 l/m 0 min 0 min 0 W/m 10,5 km/h (2 Bft) 95,74 %
22.11.2015 00:20 2,0 C 1,1 C 0,0 C 94 % 15 lf 1002,3 hPa 0,0 l/m 0 min 0 min 0 W/m 12,6 km/h (3 Bft) 100,00 %
22.11.2015 00:22 1,9 C 1,1 C 0,0 C 94 % 15 lf 1002,4 hPa 0,0 l/m 0 min 0 min 0 W/m 10,5 km/h (2 Bft) 100,00 %
22.11.2015 00:24 1,9 C 1,1 C 0,0 C 94 % 15 lf 1002,4 hPa 0,0 l/m 0 min 0 min 0 W/m 10,5 km/h (2 Bft) 97,87 %
22.11.2015 00:26 1,9 C 1,1 C 0,0 C 94 % 15 lf 1002,4 hPa 0,0 l/m 0 min 0 min 0 W/m 10,5 km/h (2 Bft) 97,87 %
22.11.2015 00:28 1,8 C 1,1 C 0,0 C 94 % 15 lf 1002,3 hPa 0,0 l/m 0 min 0 min 0 W/m 12,6 km/h (3 Bft) 97,87 %
22.11.2015 00:30 1,8 C 1,1 C 0,0 C 94 % 15 lf 1002,3 hPa 0,0 l/m 0 min 0 min 0 W/m 12,6 km/h (3 Bft) 100,00 %
22.11.2015 00:32 1,8 C 1,1 C 0,0 C 94 % 15 lf 1002,3 hPa 0,0 l/m 0 min 0 min 0 W/m 12,6 km/h (3 Bft) 100,00 %
22.11.2015 00:34 1,8 C 1,1 C 0,0 C 94 % 15 lf 1002,4 hPa 0,0 l/m 0 min 0 min 0 W/m 8,4 km/h (2 Bft) 97,83 %
22.11.2015 00:36 1,8 C 0,6 C 0,0 C 94 % 15 lf 1002,4 hPa 0,0 l/m 0 min 0 min 0 W/m 12,6 km/h (3 Bft) 95,74 %
22.11.2015 00:38 1,7 C 0,6 C 0,0 C 94 % 15 lf 1002,4 hPa 0,0 l/m 0 min 0 min 0 W/m 8,4 km/h (2 Bft) 97,87 %
22.11.2015 00:40 1,7 C 1,1 C 0,0 C 94 % 15 lf 1002,4 hPa 0,0 l/m 0 min 0 min 0 W/m 6,3 km/h (2 Bft) 93,62 %
22.11.2015 00:42 1,7 C 0,6 C 0,0 C 94 % 15 lf 1002,5 hPa 0,0 l/m 0 min 0 min 0 W/m 6,3 km/h (2 Bft) 95,74 %
22.11.2015 00:44 1,7 C 1,1 C 0,0 C 94 % 15 lf 1002,5 hPa 0,0 l/m 0 min 0 min 0 W/m 8,4 km/h (2 Bft) 95,74 %
22.11.2015 00:46 1,6 C 1,1 C 0,0 C 94 % 15 lf 1002,6 hPa 0,0 l/m 0 min 0 min 0 W/m 8,4 km/h (2 Bft) 97,83 %
22.11.2015 00:48 1,6 C 1,1 C 0,0 C 94 % 15 lf 1002,6 hPa 0,0 l/m 0 min 0 min 0 W/m 10,5 km/h (2 Bft) 95,74 %
22.11.2015 00:50 1,6 C 1,1 C 0,6 C 94 % 15 lf 1002,6 hPa 0,0 l/m 0 min 0 min 0 W/m 12,6 km/h (3 Bft) 97,87 %
22.11.2015 00:52 1,6 C 1,1 C 0,6 C 94 % 15 lf 1002,6 hPa 0,0 l/m 0 min 0 min 0 W/m 12,6 km/h (3 Bft) 93,62 %
22.11.2015 00:54 1,6 C 1,1 C 0,6 C 94 % 15 lf 1002,7 hPa 0,0 l/m 0 min 0 min 0 W/m 12,6 km/h (3 Bft) 97,87 %
22.11.2015 00:56 1,6 C 1,7 C 0,6 C 94 % 15 lf 1002,7 hPa 0,0 l/m 0 min 0 min 0 W/m 14,6 km/h (3 Bft) 95,65 %
22.11.2015 00:58 1,6 C 1,7 C 0,6 C 94 % 15 lf 1002,8 hPa 0,0 l/m 0 min 0 min 0 W/m 12,6 km/h (3 Bft) 97,87 %
22.11.2015 01:00 1,6 C 1,7 C 1,1 C 94 % 15 lf 1002,8 hPa 0,0 l/m 0 min 0 min 0 W/m 12,6 km/h (3 Bft) 97,87 %
22.11.2015 01:02 1,6 C 1,7 C 1,1 C 94 % 15 lf 1002,7 hPa 0,0 l/m 0 min 0 min 0 W/m 10,5 km/h (2 Bft) 93,62 %
22.11.2015 01:04 1,6 C 1,7 C 1,1 C 94 % 15 lf 1002,7 hPa 0,0 l/m 0 min 0 min 0 W/m 20,9 km/h (4 Bft) 100,00 %
22.11.2015 01:06 1,6 C 1,7 C 1,1 C 94 % 15 lf 1002,9 hPa 0,0 l/m 0 min 0 min 0 W/m 10,5 km/h (2 Bft) 100,00 %
22.11.2015 01:08 1,6 C 1,7 C 1,1 C 94 % 15 lf 1002,8 hPa 0,0 l/m 0 min 0 min 0 W/m 16,7 km/h (3 Bft) 93,48 %
22.11.2015 01:10 1,7 C 1,7 C 1,1 C 95 % 15 lf 1002,8 hPa 0,0 l/m 0 min 0 min 0 W/m 16,7 km/h (3 Bft) 100,00 %
22.11.2015 01:12 1,7 C 2,2 C 1,1 C 94 % 15 lf 1002,9 hPa 0,0 l/m 0 min 0 min 0 W/m 14,6 km/h (3 Bft) 95,74 %
22.11.2015 01:14 1,7 C 2,2 C 1,1 C 95 % 15 lf 1002,8 hPa 0,0 l/m 0 min 0 min 0 W/m 14,6 km/h (3 Bft) 97,87 %
22.11.2015 01:16 1,7 C 2,2 C 1,1 C 95 % 15 lf 1002,8 hPa 0,0 l/m 0 min 0 min 0 W/m 10,5 km/h (2 Bft) 100,00 %
22.11.2015 01:18 1,8 C 2,2 C 1,1 C 95 % 15 lf 1002,9 hPa 0,0 l/m 0 min 0 min 0 W/m 12,6 km/h (3 Bft) 97,87 %
22.11.2015 01:20 1,8 C 2,2 C 1,1 C 95 % 15 lf 1002,9 hPa 0,0 l/m 0 min 0 min 0 W/m 12,6 km/h (3 Bft) 97,83 %
22.11.2015 01:22 1,8 C 1,7 C 1,1 C 95 % 15 lf 1002,9 hPa 0,0 l/m 0 min 0 min 0 W/m 10,5 km/h (2 Bft) 97,87 %
22.11.2015 01:24 1,8 C 1,7 C 1,1 C 95 % 15 lf 1002,9 hPa 0,0 l/m 0 min 0 min 0 W/m 14,6 km/h (3 Bft) 95,74 %
22.11.2015 01:26 1,8 C 1,7 C 1,1 C 95 % 15 lf 1002,9 hPa 0,0 l/m 0 min 0 min 0 W/m 14,6 km/h (3 Bft) 97,87 %
22.11.2015 01:28 1,8 C 1,7 C 1,1 C 95 % 15 lf 1002,9 hPa 0,0 l/m 0 min 0 min 0 W/m 14,6 km/h (3 Bft) 93,62 %
22.11.2015 01:30 1,8 C 1,7 C 0,6 C 95 % 15 lf 1002,9 hPa 0,0 l/m 0 min 0 min 0 W/m 8,4 km/h (2 Bft) 95,74 %
22.11.2015 01:32 1,9 C 1,7 C 0,6 C 95 % 15 lf 1002,9 hPa 0,0 l/m 0 min 0 min 0 W/m 10,5 km/h (2 Bft) 97,83 %
22.11.2015 01:34 1,9 C 1,7 C 0,6 C 95 % 15 lf 1002,9 hPa 0,0 l/m 0 min 0 min 0 W/m 8,4 km/h (2 Bft) 97,87 %
22.11.2015 01:36 1,9 C 1,7 C 0,6 C 95 % 15 lf 1002,9 hPa 0,0 l/m 0 min 0 min 0 W/m 12,6 km/h (3 Bft) 97,87 %
22.11.2015 01:38 1,8 C 1,1 C 0,6 C 95 % 15 lf 1002,9 hPa 0,0 l/m 0 min 0 min 0 W/m 10,5 km/h (2 Bft) 95,74 %
22.11.2015 01:40 1,8 C 1,1 C 0,6 C 95 % 15 lf 1003,0 hPa 0,0 l/m 0 min 0 min 0 W/m 10,5 km/h (2 Bft) 95,74 %
22.11.2015 01:42 1,8 C 1,1 C 0,0 C 95 % 15 lf 1003,0 hPa 0,0 l/m 0 min 0 min 0 W/m 10,5 km/h (2 Bft) 95,74 %
22.11.2015 01:44 1,8 C 1,1 C 0,0 C 95 % 15 lf 1002,9 hPa 0,0 l/m 0 min 0 min 0 W/m 10,5 km/h (2 Bft) 97,83 %
22.11.2015 01:46 1,8 C 1,1 C 0,0 C 95 % 15 lf 1003,0 hPa 0,0 l/m 0 min 0 min 0 W/m 8,4 km/h (2 Bft) 97,87 %
22.11.2015 01:48 1,8 C 1,1 C 0,0 C 95 % 15 lf 1002,9 hPa 0,0 l/m 0 min 0 min 0 W/m 8,4 km/h (2 Bft) 97,87 %
22.11.2015 01:50 1,8 C 1,1 C 0,0 C 95 % 15 lf 1002,9 hPa 0,0 l/m 0 min 0 min 0 W/m 8,4 km/h (2 Bft) 97,87 %
22.11.2015 01:52 1,7 C 1,1 C 0,0 C 95 % 15 lf 1002,9 hPa 0,0 l/m 0 min 0 min 0 W/m 8,4 km/h (2 Bft) 98,11 %
22.11.2015 01:54 1,7 C 1,1 C 0,0 C 95 % 15 lf 1003,0 hPa 0,0 l/m 0 min 0 min 0 W/m 12,6 km/h (3 Bft) 93,48 %
22.11.2015 01:56 1,7 C 1,1 C 0,0 C 95 % 15 lf 1002,9 hPa 0,0 l/m 0 min 0 min 0 W/m 4,2 km/h (1 Bft) 93,62 %
22.11.2015 01:58 1,7 C 0,6 C 0,0 C 95 % 15 lf 1002,9 hPa 0,0 l/m 0 min 0 min 0 W/m 8,4 km/h (2 Bft) 95,74 %
22.11.2015 02:00 1,7 C 0,6 C 0,0 C 95 % 15 lf 1002,9 hPa 0,0 l/m 0 min 0 min 0 W/m 8,4 km/h (2 Bft) 95,74 %
22.11.2015 02:02 1,7 C 0,6 C 0,0 C 95 % 15 lf 1002,9 hPa 0,0 l/m 0 min 0 min 0 W/m 8,4 km/h (2 Bft) 97,92 %
22.11.2015 02:04 1,6 C 0,6 C 0,0 C 95 % 15 lf 1002,9 hPa 0,0 l/m 0 min 0 min 0 W/m 10,5 km/h (2 Bft) 97,87 %
22.11.2015 02:06 1,6 C 0,6 C 0,0 C 95 % 15 lf 1003,0 hPa 0,0 l/m 0 min 0 min 0 W/m 8,4 km/h (2 Bft) 97,96 %
22.11.2015 02:08 1,6 C 0,6 C 0,0 C 95 % 15 lf 1003,1 hPa 0,0 l/m 0 min 0 min 0 W/m 8,4 km/h (2 Bft) 100,00 %
22.11.2015 02:10 1,6 C 0,6 C 0,0 C 95 % 15 lf 1003,0 hPa 0,0 l/m 0 min 0 min 0 W/m 8,4 km/h (2 Bft) 97,87 %
22.11.2015 02:12 1,5 C 0,6 C 0,0 C 95 % 15 lf 1003,1 hPa 0,0 l/m 0 min 0 min 0 W/m 12,6 km/h (3 Bft) 95,74 %
22.11.2015 02:14 1,5 C 0,6 C 0,0 C 95 % 15 lf 1003,1 hPa 0,0 l/m 0 min 0 min 0 W/m 10,5 km/h (2 Bft) 97,87 %
22.11.2015 02:16 1,4 C 1,1 C 0,0 C 95 % 15 lf 1003,2 hPa 0,0 l/m 0 min 0 min 0 W/m 10,5 km/h (2 Bft) 93,62 %
22.11.2015 02:18 1,4 C 0,6 C 0,0 C 95 % 15 lf 1003,2 hPa 0,0 l/m 0 min 0 min 0 W/m 12,6 km/h (3 Bft) 97,83 %
22.11.2015 02:20 1,4 C 1,1 C 0,0 C 95 % 15 lf 1003,1 hPa 0,0 l/m 0 min 0 min 0 W/m 16,7 km/h (3 Bft) 95,74 %
22.11.2015 02:22 1,4 C 0,6 C 0,0 C 95 % 15 lf 1003,2 hPa 0,0 l/m 0 min 0 min 0 W/m 8,4 km/h (2 Bft) 95,74 %
22.11.2015 02:24 1,3 C 0,6 C 0,0 C 95 % 15 lf 1003,2 hPa 0,0 l/m 0 min 0 min 0 W/m 6,3 km/h (2 Bft) 93,62 %
22.11.2015 02:26 1,3 C 0,6 C 0,0 C 95 % 15 lf 1003,2 hPa 0,0 l/m 0 min 0 min 0 W/m 10,5 km/h (2 Bft) 91,49 %
22.11.2015 02:28 1,3 C 0,6 C 0,0 C 95 % 15 lf 1003,3 hPa 0,0 l/m 0 min 0 min 0 W/m 6,3 km/h (2 Bft) 93,48 %
22.11.2015 02:30 1,3 C 0,6 C -0,6 C 95 % 15 lf 1003,3 hPa 0,0 l/m 0 min 0 min 0 W/m 4,2 km/h (1 Bft) 95,74 %
22.11.2015 02:32 1,3 C 0,6 C -0,6 C 95 % 15 lf 1003,3 hPa 0,0 l/m 0 min 0 min 0 W/m 6,3 km/h (2 Bft) 93,75 %
22.11.2015 02:34 1,3 C 0,0 C -0,6 C 95 % 15 lf 1003,2 hPa 0,0 l/m 0 min 0 min 0 W/m 8,4 km/h (2 Bft) 87,23 %
22.11.2015 02:36 1,2 C 0,0 C -0,6 C 95 % 15 lf 1003,3 hPa 0,0 l/m 0 min 0 min 0 W/m 4,2 km/h (1 Bft) 97,22 %
22.11.2015 02:38 1,2 C 0,0 C -0,6 C 95 % 15 lf 1003,4 hPa 0,0 l/m 0 min 0 min 0 W/m 4,2 km/h (1 Bft) 93,62 %
22.11.2015 02:40 1,2 C 0,0 C -0,6 C 95 % 15 lf 1003,4 hPa 0,0 l/m 0 min 0 min 0 W/m 8,4 km/h (2 Bft) 93,62 %
22.11.2015 02:42 1,2 C 0,0 C -0,6 C 95 % 15 lf 1003,4 hPa 0,0 l/m 0 min 0 min 0 W/m 8,4 km/h (2 Bft) 93,48 %
22.11.2015 02:44 1,2 C 0,0 C -0,6 C 95 % 15 lf 1003,4 hPa 0,0 l/m 0 min 0 min 0 W/m 6,3 km/h (2 Bft) 93,62 %
22.11.2015 02:46 1,2 C 0,0 C -0,6 C 95 % 15 lf 1003,4 hPa 0,0 l/m 0 min 0 min 0 W/m 8,4 km/h (2 Bft) 93,62 %
22.11.2015 02:48 1,1 C 0,0 C -0,6 C 95 % 15 lf 1003,4 hPa 0,0 l/m 0 min 0 min 0 W/m 14,6 km/h (3 Bft) 91,49 %
22.11.2015 02:50 1,1 C 0,0 C -0,6 C 95 % 15 lf 1003,4 hPa 0,0 l/m 0 min 0 min 0 W/m 8,4 km/h (2 Bft) 93,62 %
22.11.2015 02:52 1,1 C 0,0 C -0,6 C 95 % 15 lf 1003,4 hPa 0,0 l/m 0 min 0 min 0 W/m 10,5 km/h (2 Bft) 93,62 %
22.11.2015 02:54 1,1 C 0,6 C 0,0 C 95 % 15 lf 1003,4 hPa 0,0 l/m 0 min 0 min 0 W/m 12,6 km/h (3 Bft) 97,83 %
22.11.2015 02:56 1,1 C 0,0 C 0,0 C 95 % 15 lf 1003,4 hPa 0,0 l/m 0 min 0 min 0 W/m 6,3 km/h (2 Bft) 91,49 %
22.11.2015 02:58 1,1 C 0,0 C -0,6 C 95 % 15 lf 1003,4 hPa 0,0 l/m 0 min 0 min 0 W/m 10,5 km/h (2 Bft) 97,87 %
22.11.2015 03:00 1,1 C 0,0 C -0,6 C 95 % 15 lf 1003,4 hPa 0,0 l/m 0 min 0 min 0 W/m 8,4 km/h (2 Bft) 95,74 %
22.11.2015 03:02 1,0 C 0,0 C -0,6 C 95 % 15 lf 1003,4 hPa 0,0 l/m 0 min 0 min 0 W/m 6,3 km/h (2 Bft) 95,74 %
22.11.2015 03:04 1,0 C 0,0 C -0,6 C 95 % 15 lf 1003,4 hPa 0,0 l/m 0 min 0 min 0 W/m 4,2 km/h (1 Bft) 95,74 %
22.11.2015 03:06 1,0 C 0,0 C -0,6 C 95 % 15 lf 1003,5 hPa 0,0 l/m 0 min 0 min 0 W/m 6,3 km/h (2 Bft) 93,48 %
22.11.2015 03:08 1,0 C 0,0 C -0,6 C 95 % 15 lf 1003,5 hPa 0,0 l/m 0 min 0 min 0 W/m 6,3 km/h (2 Bft) 95,74 %
22.11.2015 03:10 0,9 C -0,6 C -0,6 C 95 % 15 lf 1003,5 hPa 0,0 l/m 0 min 0 min 0 W/m 8,4 km/h (2 Bft) 91,49 %
22.11.2015 03:12 0,9 C -0,6 C -0,6 C 95 % 15 lf 1003,6 hPa 0,0 l/m 0 min 0 min 0 W/m 8,4 km/h (2 Bft) 97,87 %
22.11.2015 03:14 0,9 C -0,6 C -0,6 C 95 % 15 lf 1003,5 hPa 0,0 l/m 0 min 0 min 0 W/m 6,3 km/h (2 Bft) 97,87 %
22.11.2015 03:16 0,9 C -0,6 C -0,6 C 95 % 15 lf 1003,5 hPa 0,0 l/m 0 min 0 min 0 W/m 10,5 km/h (2 Bft) 95,65 %
22.11.2015 03:18 0,9 C 0,0 C -0,6 C 95 % 15 lf 1003,6 hPa 0,0 l/m 0 min 0 min 0 W/m 10,5 km/h (2 Bft) 95,74 %
22.11.2015 03:20 0,9 C 0,0 C -0,6 C 95 % 15 lf 1003,5 hPa 0,0 l/m 0 min 0 min 0 W/m 10,5 km/h (2 Bft) 93,62 %
22.11.2015 03:22 0,8 C 0,0 C -0,6 C 95 % 15 lf 1003,5 hPa 0,0 l/m 0 min 0 min 0 W/m 12,6 km/h (3 Bft) 97,87 %
22.11.2015 03:24 0,8 C 0,0 C -0,6 C 95 % 15 lf 1003,5 hPa 0,0 l/m 0 min 0 min 0 W/m 8,4 km/h (2 Bft) 97,87 %
22.11.2015 03:26 0,8 C 0,0 C -0,6 C 95 % 15 lf 1003,5 hPa 0,0 l/m 0 min 0 min 0 W/m 10,5 km/h (2 Bft) 95,74 %
22.11.2015 03:28 0,8 C 0,0 C -0,6 C 95 % 15 lf 1003,6 hPa 0,0 l/m 0 min 0 min 0 W/m 6,3 km/h (2 Bft) 91,30 %
22.11.2015 03:30 0,8 C 0,0 C -0,6 C 95 % 15 lf 1003,5 hPa 0,0 l/m 0 min 0 min 0 W/m 8,4 km/h (2 Bft) 97,87 %
22.11.2015 03:32 0,8 C 0,0 C -0,6 C 95 % 15 lf 1003,5 hPa 0,0 l/m 0 min 0 min 0 W/m 8,4 km/h (2 Bft) 97,87 %
22.11.2015 03:34 0,7 C 0,0 C -0,6 C 95 % 15 lf 1003,5 hPa 0,0 l/m 0 min 0 min 0 W/m 6,3 km/h (2 Bft) 97,87 %
22.11.2015 03:36 0,7 C 0,0 C -0,6 C 95 % 15 lf 1003,5 hPa 0,0 l/m 0 min 0 min 0 W/m 6,3 km/h (2 Bft) 98,15 %
22.11.2015 03:38 0,7 C 0,0 C -0,6 C 95 % 15 lf 1003,5 hPa 0,0 l/m 0 min 0 min 0 W/m 10,5 km/h (2 Bft) 91,49 %
22.11.2015 03:40 0,7 C 0,0 C -0,6 C 95 % 15 lf 1003,5 hPa 0,0 l/m 0 min 0 min 0 W/m 10,5 km/h (2 Bft) 91,30 %
22.11.2015 03:42 0,7 C 0,0 C -0,6 C 95 % 15 lf 1003,6 hPa 0,0 l/m 0 min 0 min 0 W/m 8,4 km/h (2 Bft) 95,74 %
22.11.2015 03:44 0,7 C 0,0 C -0,6 C 95 % 15 lf 1003,6 hPa 0,0 l/m 0 min 0 min 0 W/m 8,4 km/h (2 Bft) 97,87 %
22.11.2015 03:46 0,7 C 0,0 C -0,6 C 95 % 15 lf 1003,6 hPa 0,0 l/m 0 min 0 min 0 W/m 8,4 km/h (2 Bft) 97,87 %
22.11.2015 03:48 0,7 C -0,6 C -0,6 C 95 % 15 lf 1003,6 hPa 0,0 l/m 0 min 0 min 0 W/m 8,4 km/h (2 Bft) 97,87 %
22.11.2015 03:50 0,7 C -0,6 C -0,6 C 95 % 15 lf 1003,5 hPa 0,0 l/m 0 min 0 min 0 W/m 8,4 km/h (2 Bft) 93,62 %
22.11.2015 03:52 0,7 C -0,6 C -0,6 C 95 % 15 lf 1003,5 hPa 0,0 l/m 0 min 0 min 0 W/m 8,4 km/h (2 Bft) 97,83 %
22.11.2015 03:54 0,6 C -0,6 C -0,6 C 95 % 15 lf 1003,5 hPa 0,0 l/m 0 min 0 min 0 W/m 10,5 km/h (2 Bft) 93,62 %
22.11.2015 03:56 0,6 C -0,6 C -0,6 C 95 % 15 lf 1003,6 hPa 0,0 l/m 0 min 0 min 0 W/m 10,5 km/h (2 Bft) 95,74 %
22.11.2015 03:58 0,6 C 0,0 C -0,6 C 95 % 15 lf 1003,6 hPa 0,0 l/m 0 min 0 min 0 W/m 8,4 km/h (2 Bft) 95,74 %
22.11.2015 04:00 0,6 C 0,0 C -0,6 C 95 % 15 lf 1003,6 hPa 0,0 l/m 0 min 0 min 0 W/m 6,3 km/h (2 Bft) 93,62 %
22.11.2015 04:05 0,6 C 0,0 C -0,6 C 95 % 15 lf 1003,6 hPa 0,0 l/m 0 min 0 min 0 W/m 8,4 km/h (2 Bft) 92,73 %
22.11.2015 04:06 0,6 C 0,0 C -0,6 C 95 % 15 lf 1003,6 hPa 0,0 l/m 0 min 0 min 0 W/m 6,3 km/h (2 Bft) 100,00 %
22.11.2015 04:08 0,5 C 0,0 C -0,6 C 95 % 15 lf 1003,7 hPa 0,0 l/m 0 min 0 min 0 W/m 14,6 km/h (3 Bft) 91,49 %
22.11.2015 04:10 0,6 C 0,0 C -0,6 C 95 % 15 lf 1003,8 hPa 0,0 l/m 0 min 0 min 0 W/m 10,5 km/h (2 Bft) 93,62 %
22.11.2015 04:12 0,6 C 0,0 C -0,6 C 95 % 15 lf 1003,7 hPa 0,0 l/m 0 min 0 min 0 W/m 14,6 km/h (3 Bft) 93,62 %
22.11.2015 04:14 0,6 C 0,0 C -0,6 C 95 % 15 lf 1003,7 hPa 0,0 l/m 0 min 0 min 0 W/m 18,8 km/h (3 Bft) 93,48 %
22.11.2015 04:16 0,6 C 0,0 C -0,6 C 95 % 15 lf 1003,7 hPa 0,0 l/m 0 min 0 min 0 W/m 20,9 km/h (4 Bft) 91,49 %
22.11.2015 04:18 0,6 C 0,0 C -0,6 C 95 % 15 lf 1003,6 hPa 0,0 l/m 0 min 0 min 0 W/m 12,6 km/h (3 Bft) 89,36 %
22.11.2015 04:20 0,6 C 0,0 C -0,6 C 95 % 15 lf 1003,7 hPa 0,0 l/m 0 min 0 min 0 W/m 10,5 km/h (2 Bft) 93,62 %
22.11.2015 04:22 0,6 C 0,0 C -0,6 C 95 % 15 lf 1003,7 hPa 0,0 l/m 0 min 0 min 0 W/m 14,6 km/h (3 Bft) 93,75 %
22.11.2015 04:24 0,6 C 0,0 C -0,6 C 95 % 15 lf 1003,7 hPa 0,0 l/m 0 min 0 min 0 W/m 12,6 km/h (3 Bft) 95,74 %
22.11.2015 04:26 0,6 C 0,0 C -0,6 C 95 % 15 lf 1003,7 hPa 0,0 l/m 0 min 0 min 0 W/m 12,6 km/h (3 Bft) 84,78 %
22.11.2015 04:28 0,6 C 0,0 C -0,6 C 95 % 15 lf 1003,7 hPa 0,0 l/m 0 min 0 min 0 W/m 10,5 km/h (2 Bft) 93,62 %
22.11.2015 04:30 0,6 C 0,0 C -0,6 C 95 % 15 lf 1003,8 hPa 0,0 l/m 0 min 0 min 0 W/m 10,5 km/h (2 Bft) 93,62 %
22.11.2015 04:32 0,6 C 0,0 C -0,6 C 95 % 15 lf 1003,9 hPa 0,0 l/m 0 min 0 min 0 W/m 8,4 km/h (2 Bft) 95,74 %
22.11.2015 04:34 0,6 C 0,0 C -0,6 C 95 % 15 lf 1003,9 hPa 0,0 l/m 0 min 0 min 0 W/m 14,6 km/h (3 Bft) 93,62 %
22.11.2015 04:36 0,6 C 0,0 C -0,6 C 95 % 15 lf 1003,9 hPa 0,0 l/m 0 min 0 min 0 W/m 10,5 km/h (2 Bft) 93,48 %
22.11.2015 04:38 0,6 C 0,0 C -0,6 C 95 % 15 lf 1004,0 hPa 0,0 l/m 0 min 0 min 0 W/m 12,6 km/h (3 Bft) 95,74 %
22.11.2015 04:40 0,6 C 0,0 C -0,6 C 95 % 15 lf 1004,0 hPa 0,0 l/m 0 min 0 min 0 W/m 10,5 km/h (2 Bft) 95,74 %
22.11.2015 04:42 0,6 C 0,0 C -0,6 C 95 % 15 lf 1004,0 hPa 0,0 l/m 0 min 0 min 0 W/m 14,6 km/h (3 Bft) 95,83 %
22.11.2015 04:44 0,6 C 0,0 C -0,6 C 95 % 15 lf 1004,0 hPa 0,0 l/m 0 min 0 min 0 W/m 10,5 km/h (2 Bft) 96,61 %
22.11.2015 04:46 0,6 C 0,0 C -0,6 C 95 % 15 lf 1003,9 hPa 0,0 l/m 0 min 0 min 0 W/m 14,6 km/h (3 Bft) 93,62 %
22.11.2015 04:48 0,5 C 0,0 C -0,6 C 95 % 15 lf 1004,0 hPa 0,0 l/m 0 min 0 min 0 W/m 14,6 km/h (3 Bft) 100,00 %
22.11.2015 04:50 0,5 C 0,0 C -0,6 C 95 % 15 lf 1003,9 hPa 0,0 l/m 0 min 0 min 0 W/m 14,6 km/h (3 Bft) 97,83 %
22.11.2015 04:52 0,5 C 0,0 C -0,6 C 95 % 15 lf 1004,0 hPa 0,0 l/m 0 min 0 min 0 W/m 16,7 km/h (3 Bft) 97,87 %
22.11.2015 04:54 0,5 C 0,0 C -0,6 C 95 % 15 lf 1004,1 hPa 0,0 l/m 0 min 0 min 0 W/m 10,5 km/h (2 Bft) 100,00 %
22.11.2015 04:56 0,5 C 0,0 C -0,6 C 95 % 15 lf 1004,1 hPa 0,0 l/m 0 min 0 min 0 W/m 8,4 km/h (2 Bft) 100,00 %
22.11.2015 04:58 0,5 C 0,0 C -0,6 C 95 % 15 lf 1004,1 hPa 0,0 l/m 0 min 0 min 0 W/m 8,4 km/h (2 Bft) 100,00 %
22.11.2015 05:00 0,5 C 0,0 C -0,6 C 95 % 15 lf 1004,1 hPa 0,0 l/m 0 min 0 min 0 W/m 8,4 km/h (2 Bft) 97,87 %
22.11.2015 05:02 0,5 C 0,0 C -0,6 C 95 % 15 lf 1004,1 hPa 0,0 l/m 0 min 0 min 0 W/m 8,4 km/h (2 Bft) 97,83 %
22.11.2015 05:04 0,5 C 0,0 C -0,6 C 96 % 15 lf 1004,1 hPa 0,0 l/m 0 min 0 min 0 W/m 8,4 km/h (2 Bft) 100,00 %
22.11.2015 05:06 0,5 C 0,0 C -0,6 C 96 % 15 lf 1004,2 hPa 0,0 l/m 0 min 0 min 0 W/m 8,4 km/h (2 Bft) 100,00 %
22.11.2015 05:08 0,5 C 0,0 C -0,6 C 96 % 15 lf 1004,1 hPa 0,0 l/m 0 min 0 min 0 W/m 8,4 km/h (2 Bft) 97,87 %
22.11.2015 05:10 0,5 C -0,6 C -0,6 C 96 % 15 lf 1004,1 hPa 0,0 l/m 0 min 0 min 0 W/m 8,4 km/h (2 Bft) 100,00 %
22.11.2015 05:12 0,5 C -0,6 C -1,1 C 96 % 15 lf 1004,2 hPa 0,0 l/m 0 min 0 min 0 W/m 8,4 km/h (2 Bft) 100,00 %
22.11.2015 05:14 0,5 C 0,0 C -1,1 C 96 % 15 lf 1004,2 hPa 0,0 l/m 0 min 0 min 0 W/m 10,5 km/h (2 Bft) 100,00 %
22.11.2015 05:16 0,5 C -0,6 C -1,1 C 96 % 15 lf 1004,1 hPa 0,0 l/m 0 min 0 min 0 W/m 8,4 km/h (2 Bft) 97,87 %
22.11.2015 05:18 0,5 C -0,6 C -1,1 C 96 % 15 lf 1004,2 hPa 0,0 l/m 0 min 0 min 0 W/m 6,3 km/h (2 Bft) 97,87 %
22.11.2015 05:20 0,5 C -0,6 C -1,1 C 96 % 15 lf 1004,2 hPa 0,0 l/m 0 min 0 min 0 W/m 6,3 km/h (2 Bft) 97,87 %
22.11.2015 05:22 0,5 C -0,6 C -1,1 C 96 % 15 lf 1004,2 hPa 0,0 l/m 0 min 0 min 0 W/m 8,4 km/h (2 Bft) 97,87 %
22.11.2015 05:24 0,4 C -0,6 C -1,1 C 96 % 15 lf 1004,2 hPa 0,0 l/m 0 min 0 min 0 W/m 8,4 km/h (2 Bft) 91,49 %
22.11.2015 05:26 0,4 C -0,6 C -1,1 C 96 % 15 lf 1004,2 hPa 0,0 l/m 0 min 0 min 0 W/m 8,4 km/h (2 Bft) 93,48 %
22.11.2015 05:28 0,4 C -0,6 C -1,1 C 96 % 15 lf 1004,2 hPa 0,0 l/m 0 min 0 min 0 W/m 6,3 km/h (2 Bft) 95,74 %
22.11.2015 05:30 0,4 C -0,6 C -1,1 C 96 % 15 lf 1004,2 hPa 0,0 l/m 0 min 0 min 0 W/m 8,4 km/h (2 Bft) 97,87 %
22.11.2015 05:32 0,3 C -0,6 C -1,1 C 96 % 15 lf 1004,3 hPa 0,0 l/m 0 min 0 min 0 W/m 8,4 km/h (2 Bft) 93,62 %
22.11.2015 05:34 0,3 C -0,6 C -1,1 C 96 % 15 lf 1004,3 hPa 0,0 l/m 0 min 0 min 0 W/m 6,3 km/h (2 Bft) 97,87 %
22.11.2015 05:36 0,3 C -1,1 C -1,1 C 96 % 15 lf 1004,4 hPa 0,0 l/m 0 min 0 min 0 W/m 6,3 km/h (2 Bft) 91,49 %
22.11.2015 05:38 0,3 C -0,6 C -1,1 C 96 % 15 lf 1004,4 hPa 0,0 l/m 0 min 0 min 0 W/m 6,3 km/h (2 Bft) 97,83 %
22.11.2015 05:40 0,3 C -0,6 C -1,1 C 96 % 15 lf 1004,5 hPa 0,0 l/m 0 min 0 min 0 W/m 6,3 km/h (2 Bft) 93,62 %
22.11.2015 05:42 0,2 C -0,6 C -1,1 C 96 % 15 lf 1004,5 hPa 0,0 l/m 0 min 0 min 0 W/m 6,3 km/h (2 Bft) 95,74 %
22.11.2015 05:44 0,2 C -0,6 C -1,1 C 96 % 15 lf 1004,5 hPa 0,0 l/m 0 min 0 min 0 W/m 4,2 km/h (1 Bft) 97,87 %
22.11.2015 05:46 0,2 C -0,6 C -1,1 C 96 % 15 lf 1004,5 hPa 0,0 l/m 0 min 0 min 0 W/m 4,2 km/h (1 Bft) 97,87 %
22.11.2015 05:48 0,2 C -0,6 C -1,7 C 96 % 15 lf 1004,5 hPa 0,0 l/m 0 min 0 min 0 W/m 4,2 km/h (1 Bft) 91,30 %
22.11.2015 05:50 0,2 C -1,1 C -1,7 C 96 % 15 lf 1004,5 hPa 0,0 l/m 0 min 0 min 0 W/m 4,2 km/h (1 Bft) 93,62 %
22.11.2015 05:52 0,1 C -1,1 C -1,7 C 96 % 15 lf 1004,5 hPa 0,0 l/m 0 min 0 min 0 W/m 6,3 km/h (2 Bft) 97,87 %
22.11.2015 05:54 0,1 C -0,6 C -1,7 C 96 % 15 lf 1004,6 hPa 0,0 l/m 0 min 0 min 0 W/m 8,4 km/h (2 Bft) 93,62 %
22.11.2015 05:56 0,1 C -0,6 C -1,1 C 96 % 15 lf 1004,6 hPa 0,0 l/m 0 min 0 min 0 W/m 8,4 km/h (2 Bft) 93,62 %
22.11.2015 05:58 0,1 C -0,6 C -1,1 C 96 % 15 lf 1004,6 hPa 0,0 l/m 0 min 0 min 0 W/m 6,3 km/h (2 Bft) 97,87 %
22.11.2015 06:00 0,1 C -1,1 C -1,7 C 95 % 15 lf 1004,6 hPa 0,0 l/m 0 min 0 min 0 W/m 4,2 km/h (1 Bft) 95,65 %
22.11.2015 06:02 0,0 C -1,1 C -1,7 C 95 % 15 lf 1004,7 hPa 0,0 l/m 0 min 0 min 0 W/m 6,3 km/h (2 Bft) 93,62 %
22.11.2015 06:06 0,0 C -0,6 C -1,1 C 95 % 15 lf 1004,6 hPa 0,0 l/m 0 min 0 min 0 W/m 10,5 km/h (2 Bft) 94,00 %
22.11.2015 06:08 0,0 C -0,6 C -1,1 C 95 % 15 lf 1004,7 hPa 0,0 l/m 0 min 0 min 0 W/m 10,5 km/h (2 Bft) 95,74 %
22.11.2015 06:10 0,0 C -0,6 C -1,1 C 96 % 15 lf 1004,7 hPa 0,0 l/m 0 min 0 min 0 W/m 6,3 km/h (2 Bft) 89,36 %
22.11.2015 06:12 -0,1 C -0,6 C -1,1 C 96 % 15 lf 1004,7 hPa 0,0 l/m 0 min 0 min 0 W/m 12,6 km/h (3 Bft) 97,83 %
22.11.2015 06:14 -0,1 C -0,6 C -1,1 C 96 % 15 lf 1004,7 hPa 0,0 l/m 0 min 0 min 0 W/m 10,5 km/h (2 Bft) 95,74 %
22.11.2015 06:16 -0,1 C -0,6 C -1,1 C 96 % 15 lf 1004,8 hPa 0,0 l/m 0 min 0 min 0 W/m 10,5 km/h (2 Bft) 100,00 %
22.11.2015 06:18 -0,1 C -0,6 C -1,1 C 96 % 15 lf 1004,8 hPa 0,0 l/m 0 min 0 min 0 W/m 10,5 km/h (2 Bft) 93,62 %
22.11.2015 06:20 -0,1 C -0,6 C -1,1 C 96 % 15 lf 1004,7 hPa 0,0 l/m 0 min 0 min 0 W/m 12,6 km/h (3 Bft) 95,74 %
22.11.2015 06:22 -0,1 C -0,6 C -1,1 C 96 % 15 lf 1004,7 hPa 0,0 l/m 0 min 0 min 0 W/m 8,4 km/h (2 Bft) 95,74 %
22.11.2015 06:24 -0,1 C -0,6 C -1,1 C 96 % 15 lf 1004,7 hPa 0,0 l/m 0 min 0 min 0 W/m 10,5 km/h (2 Bft) 97,83 %
22.11.2015 06:26 0,0 C -0,6 C -1,1 C 96 % 15 lf 1004,7 hPa 0,0 l/m 0 min 0 min 0 W/m 12,6 km/h (3 Bft) 91,49 %
22.11.2015 06:28 0,0 C -0,6 C -1,1 C 96 % 15 lf 1004,7 hPa 0,0 l/m 0 min 0 min 0 W/m 10,5 km/h (2 Bft) 95,74 %
22.11.2015 06:30 0,0 C -0,6 C -1,1 C 96 % 15 lf 1004,8 hPa 0,0 l/m 0 min 0 min 0 W/m 10,5 km/h (2 Bft) 93,62 %
22.11.2015 06:32 0,0 C -0,6 C -1,1 C 96 % 15 lf 1004,8 hPa 0,0 l/m 0 min 0 min 0 W/m 10,5 km/h (2 Bft) 95,83 %
22.11.2015 06:34 0,1 C -0,6 C -1,1 C 96 % 15 lf 1004,8 hPa 0,0 l/m 0 min 0 min 0 W/m 10,5 km/h (2 Bft) 97,83 %
22.11.2015 06:36 0,1 C 0,0 C -1,1 C 96 % 15 lf 1004,8 hPa 0,0 l/m 0 min 0 min 0 W/m 12,6 km/h (3 Bft) 93,62 %
22.11.2015 06:38 0,1 C -0,6 C -1,1 C 96 % 15 lf 1004,8 hPa 0,0 l/m 0 min 0 min 0 W/m 16,7 km/h (3 Bft) 97,87 %
22.11.2015 06:40 0,1 C -0,6 C -1,1 C 96 % 15 lf 1004,8 hPa 0,0 l/m 0 min 0 min 0 W/m 14,6 km/h (3 Bft) 93,62 %
22.11.2015 06:42 0,1 C -0,6 C -1,1 C 96 % 15 lf 1004,8 hPa 0,0 l/m 0 min 0 min 0 W/m 16,7 km/h (3 Bft) 97,87 %
22.11.2015 06:44 0,1 C -0,6 C -1,1 C 96 % 15 lf 1004,8 hPa 0,0 l/m 0 min 0 min 0 W/m 14,6 km/h (3 Bft) 95,74 %
22.11.2015 06:46 0,1 C 0,0 C -0,6 C 96 % 15 lf 1004,8 hPa 0,0 l/m 0 min 0 min 0 W/m 14,6 km/h (3 Bft) 95,65 %
22.11.2015 06:48 0,1 C -0,6 C -0,6 C 96 % 15 lf 1004,8 hPa 0,0 l/m 0 min 0 min 0 W/m 12,6 km/h (3 Bft) 97,87 %
22.11.2015 06:50 0,1 C -0,6 C -1,1 C 96 % 15 lf 1004,8 hPa 0,0 l/m 0 min 0 min 0 W/m 10,5 km/h (2 Bft) 97,87 %
22.11.2015 06:52 0,1 C -0,6 C -1,1 C 96 % 15 lf 1004,8 hPa 0,0 l/m 0 min 0 min 0 W/m 10,5 km/h (2 Bft) 95,74 %
22.11.2015 06:54 0,1 C -0,6 C -1,1 C 96 % 15 lf 1004,8 hPa 0,0 l/m 0 min 0 min 0 W/m 16,7 km/h (3 Bft) 97,87 %
22.11.2015 06:56 0,1 C -0,6 C -1,1 C 96 % 15 lf 1004,9 hPa 0,0 l/m 0 min 0 min 0 W/m 18,8 km/h (3 Bft) 93,62 %
22.11.2015 06:58 0,1 C -0,6 C -0,6 C 96 % 15 lf 1004,8 hPa 0,0 l/m 0 min 0 min 0 W/m 16,7 km/h (3 Bft) 95,65 %
22.11.2015 07:00 0,1 C -0,6 C -0,6 C 96 % 15 lf 1004,9 hPa 0,0 l/m 0 min 0 min 0 W/m 10,5 km/h (2 Bft) 97,87 %
22.11.2015 07:02 0,1 C -0,6 C -0,6 C 96 % 15 lf 1004,9 hPa 0,0 l/m 0 min 0 min 0 W/m 10,5 km/h (2 Bft) 95,83 %
22.11.2015 07:04 0,1 C -0,6 C -1,1 C 96 % 15 lf 1004,9 hPa 0,0 l/m 0 min 0 min 0 W/m 10,5 km/h (2 Bft) 97,87 %
22.11.2015 07:06 0,1 C -0,6 C -1,1 C 96 % 15 lf 1005,0 hPa 0,0 l/m 0 min 0 min 0 W/m 10,5 km/h (2 Bft) 95,74 %
22.11.2015 07:08 0,1 C -0,6 C -1,1 C 96 % 15 lf 1004,9 hPa 0,0 l/m 0 min 0 min 0 W/m 10,5 km/h (2 Bft) 95,74 %
22.11.2015 07:10 0,1 C -0,6 C -1,1 C 96 % 15 lf 1005,0 hPa 0,0 l/m 0 min 0 min 0 W/m 8,4 km/h (2 Bft) 89,13 %
22.11.2015 07:12 0,1 C -0,6 C -0,6 C 96 % 15 lf 1005,0 hPa 0,0 l/m 0 min 0 min 0 W/m 10,5 km/h (2 Bft) 97,87 %
22.11.2015 07:14 0,1 C -0,6 C -1,1 C 96 % 15 lf 1005,0 hPa 0,0 l/m 0 min 0 min 0 W/m 10,5 km/h (2 Bft) 95,74 %
22.11.2015 07:16 0,1 C -0,6 C -0,6 C 96 % 15 lf 1005,0 hPa 0,0 l/m 0 min 0 min 0 W/m 12,6 km/h (3 Bft) 97,87 %
22.11.2015 07:18 0,1 C -0,6 C -0,6 C 96 % 15 lf 1004,9 hPa 0,0 l/m 0 min 0 min 0 W/m 8,4 km/h (2 Bft) 95,74 %
22.11.2015 07:20 0,1 C -0,6 C -0,6 C 96 % 15 lf 1005,0 hPa 0,0 l/m 0 min 0 min 0 W/m 12,6 km/h (3 Bft) 97,87 %
22.11.2015 07:22 0,1 C 0,0 C -0,6 C 96 % 15 lf 1004,9 hPa 0,0 l/m 0 min 0 min 0 W/m 12,6 km/h (3 Bft) 100,00 %
22.11.2015 07:24 0,1 C 0,0 C -0,6 C 96 % 15 lf 1005,0 hPa 0,0 l/m 0 min 0 min 0 W/m 10,5 km/h (2 Bft) 97,87 %
22.11.2015 07:26 0,1 C 0,0 C -0,6 C 96 % 15 lf 1005,0 hPa 0,0 l/m 0 min 0 min 0 W/m 12,6 km/h (3 Bft) 93,62 %
22.11.2015 07:28 0,1 C 0,0 C -0,6 C 96 % 15 lf 1005,1 hPa 0,0 l/m 0 min 0 min 0 W/m 8,4 km/h (2 Bft) 97,87 %
22.11.2015 07:30 0,1 C -0,6 C -1,1 C 96 % 15 lf 1005,2 hPa 0,0 l/m 0 min 0 min 0 W/m 8,4 km/h (2 Bft) 95,74 %
22.11.2015 07:32 0,1 C -0,6 C -1,1 C 96 % 15 lf 1005,2 hPa 0,0 l/m 0 min 0 min 0 W/m 12,6 km/h (3 Bft) 93,62 %
22.11.2015 07:34 0,1 C -0,6 C -1,1 C 96 % 15 lf 1005,2 hPa 0,0 l/m 0 min 0 min 0 W/m 10,5 km/h (2 Bft) 95,74 %
22.11.2015 07:36 0,1 C -0,6 C -1,1 C 96 % 15 lf 1005,2 hPa 0,0 l/m 0 min 0 min 0 W/m 10,5 km/h (2 Bft) 97,37 %
22.11.2015 07:38 0,1 C -0,6 C -1,1 C 96 % 15 lf 1005,2 hPa 0,0 l/m 0 min 0 min 0 W/m 10,5 km/h (2 Bft) 95,74 %
22.11.2015 07:40 0,1 C -0,6 C -1,1 C 96 % 15 lf 1005,2 hPa 0,0 l/m 0 min 0 min 0 W/m 12,6 km/h (3 Bft) 97,87 %
22.11.2015 07:42 0,1 C -0,6 C -1,1 C 96 % 15 lf 1005,2 hPa 0,0 l/m 0 min 0 min 0 W/m 10,5 km/h (2 Bft) 97,87 %
22.11.2015 07:44 0,1 C -0,6 C -1,1 C 96 % 15 lf 1005,3 hPa 0,0 l/m 0 min 0 min 0 W/m 10,5 km/h (2 Bft) 93,62 %
22.11.2015 07:46 0,1 C -0,6 C -1,1 C 96 % 15 lf 1005,3 hPa 0,0 l/m 0 min 0 min 0 W/m 12,6 km/h (3 Bft) 97,83 %
22.11.2015 07:48 0,1 C -0,6 C -1,1 C 96 % 15 lf 1005,4 hPa 0,0 l/m 0 min 0 min 0 W/m 8,4 km/h (2 Bft) 95,74 %
22.11.2015 07:50 0,1 C -0,6 C -1,1 C 96 % 15 lf 1005,4 hPa 0,0 l/m 0 min 0 min 0 W/m 8,4 km/h (2 Bft) 97,87 %
22.11.2015 07:52 0,1 C -0,6 C -1,1 C 96 % 15 lf 1005,5 hPa 0,0 l/m 0 min 0 min 1 W/m 12,6 km/h (3 Bft) 95,74 %
22.11.2015 07:54 0,1 C -0,6 C -1,1 C 96 % 15 lf 1005,5 hPa 0,0 l/m 0 min 0 min 5 W/m 12,6 km/h (3 Bft) 95,74 %
22.11.2015 07:56 0,1 C -0,6 C -1,1 C 96 % 15 lf 1005,5 hPa 0,0 l/m 0 min 0 min 5 W/m 8,4 km/h (2 Bft) 93,62 %
22.11.2015 07:58 0,1 C -0,6 C -1,1 C 96 % 15 lf 1005,5 hPa 0,0 l/m 0 min 0 min 5 W/m 8,4 km/h (2 Bft) 95,65 %
22.11.2015 08:00 0,0 C -0,6 C -1,1 C 96 % 15 lf 1005,5 hPa 0,0 l/m 0 min 0 min 6 W/m 10,5 km/h (2 Bft) 95,74 %
22.11.2015 08:02 0,0 C -0,6 C -1,1 C 96 % 15 lf 1005,6 hPa 0,0 l/m 0 min 0 min 7 W/m 10,5 km/h (2 Bft) 93,62 %
22.11.2015 08:04 0,0 C -0,6 C -1,1 C 96 % 15 lf 1005,7 hPa 0,0 l/m 0 min 0 min 8 W/m 8,4 km/h (2 Bft) 91,49 %
22.11.2015 08:06 0,0 C -0,6 C -1,1 C 96 % 15 lf 1005,6 hPa 0,0 l/m 0 min 0 min 9 W/m 12,6 km/h (3 Bft) 94,44 %
22.11.2015 08:08 0,0 C 0,0 C -0,6 C 96 % 15 lf 1005,7 hPa 0,0 l/m 0 min 0 min 10 W/m 14,6 km/h (3 Bft) 97,83 %
22.11.2015 08:10 0,0 C 0,0 C -0,6 C 96 % 15 lf 1005,7 hPa 0,0 l/m 0 min 0 min 11 W/m 12,6 km/h (3 Bft) 87,23 %
22.11.2015 08:12 0,1 C 0,0 C -0,6 C 96 % 15 lf 1005,9 hPa 0,0 l/m 0 min 0 min 12 W/m 12,6 km/h (3 Bft) 93,62 %
22.11.2015 08:14 0,1 C 0,0 C -0,6 C 96 % 15 lf 1005,8 hPa 0,0 l/m 0 min 0 min 13 W/m 12,6 km/h (3 Bft) 95,74 %
22.11.2015 08:16 0,1 C 0,0 C -0,6 C 96 % 15 lf 1005,8 hPa 0,0 l/m 0 min 0 min 16 W/m 18,8 km/h (3 Bft) 93,62 %
22.11.2015 08:18 0,1 C 0,6 C -0,6 C 96 % 15 lf 1005,8 hPa 0,0 l/m 0 min 0 min 18 W/m 14,6 km/h (3 Bft) 95,74 %
22.11.2015 08:20 0,2 C 0,6 C -0,6 C 96 % 15 lf 1006,0 hPa 0,0 l/m 2 min 0 min 19 W/m 8,4 km/h (2 Bft) 91,30 %
22.11.2015 08:22 0,2 C 0,6 C 0,0 C 96 % 15 lf 1006,0 hPa 0,0 l/m 2 min 0 min 21 W/m 14,6 km/h (3 Bft) 91,49 %
22.11.2015 08:24 0,2 C 0,6 C 0,0 C 96 % 15 lf 1006,0 hPa 0,0 l/m 2 min 0 min 19 W/m 10,5 km/h (2 Bft) 93,62 %
22.11.2015 08:26 0,3 C 0,6 C 0,0 C 96 % 15 lf 1006,1 hPa 0,0 l/m 2 min 0 min 20 W/m 18,8 km/h (3 Bft) 95,74 %
22.11.2015 08:28 0,3 C 0,6 C 0,0 C 96 % 15 lf 1006,1 hPa 0,0 l/m 2 min 0 min 24 W/m 14,6 km/h (3 Bft) 95,74 %
22.11.2015 08:30 0,4 C 0,6 C 0,0 C 96 % 15 lf 1006,1 hPa 0,0 l/m 2 min 0 min 26 W/m 12,6 km/h (3 Bft) 95,65 %
22.11.2015 08:32 0,4 C 0,6 C 0,0 C 97 % 15 lf 1006,1 hPa 0,0 l/m 0 min 0 min 26 W/m 16,7 km/h (3 Bft) 93,75 %
22.11.2015 08:34 0,5 C 0,6 C -0,6 C 97 % 15 lf 1006,2 hPa 0,0 l/m 2 min 0 min 32 W/m 16,7 km/h (3 Bft) 95,74 %
22.11.2015 08:36 0,5 C 0,6 C 0,0 C 97 % 15 lf 1006,1 hPa 0,0 l/m 0 min 0 min 28 W/m 20,9 km/h (4 Bft) 98,00 %
22.11.2015 08:38 0,5 C 0,6 C 0,0 C 97 % 15 lf 1006,1 hPa 0,0 l/m 0 min 0 min 31 W/m 18,8 km/h (3 Bft) 89,36 %
22.11.2015 08:40 0,5 C 0,6 C 0,0 C 97 % 15 lf 1006,1 hPa 0,0 l/m 2 min 0 min 43 W/m 18,8 km/h (3 Bft) 95,74 %
22.11.2015 08:42 0,5 C 0,6 C 0,0 C 97 % 15 lf 1006,1 hPa 0,0 l/m 2 min 0 min 46 W/m 16,7 km/h (3 Bft) 95,65 %
22.11.2015 08:44 0,5 C 0,6 C 0,0 C 97 % 15 lf 1006,1 hPa 0,0 l/m 2 min 0 min 59 W/m 14,6 km/h (3 Bft) 97,87 %
22.11.2015 08:46 0,5 C 0,6 C 0,0 C 97 % 15 lf 1006,1 hPa 0,0 l/m 2 min 0 min 60 W/m 14,6 km/h (3 Bft) 95,74 %
22.11.2015 08:48 0,6 C 0,6 C 0,0 C 97 % 15 lf 1006,1 hPa 0,0 l/m 2 min 0 min 62 W/m 18,8 km/h (3 Bft) 97,87 %
22.11.2015 08:50 0,6 C 0,6 C 0,0 C 97 % 15 lf 1006,2 hPa 0,0 l/m 2 min 0 min 63 W/m 14,6 km/h (3 Bft) 97,87 %
22.11.2015 08:52 0,6 C 0,6 C 0,0 C 97 % 15 lf 1006,1 hPa 0,0 l/m 2 min 0 min 66 W/m 14,6 km/h (3 Bft) 91,30 %
22.11.2015 08:54 0,6 C 0,6 C 0,0 C 97 % 15 lf 1006,2 hPa 0,0 l/m 2 min 0 min 68 W/m 16,7 km/h (3 Bft) 93,62 %
22.11.2015 08:56 0,6 C 0,6 C 0,0 C 97 % 15 lf 1006,2 hPa 0,0 l/m 2 min 0 min 73 W/m 10,5 km/h (2 Bft) 89,36 %
22.11.2015 08:58 0,6 C 0,6 C 0,0 C 97 % 15 lf 1006,3 hPa 0,0 l/m 2 min 0 min 80 W/m 12,6 km/h (3 Bft) 97,87 %
22.11.2015 09:00 0,6 C 0,6 C 0,0 C 97 % 15 lf 1006,3 hPa 0,0 l/m 2 min 0 min 83 W/m 12,6 km/h (3 Bft) 95,74 %
22.11.2015 09:02 0,7 C 0,6 C 0,0 C 97 % 15 lf 1006,3 hPa 0,0 l/m 2 min 0 min 80 W/m 12,6 km/h (3 Bft) 93,75 %
22.11.2015 09:04 0,7 C 0,6 C 0,0 C 97 % 15 lf 1006,3 hPa 0,0 l/m 2 min 0 min 85 W/m 10,5 km/h (2 Bft) 94,29 %
22.11.2015 09:06 0,7 C 0,6 C 0,0 C 97 % 15 lf 1006,4 hPa 0,0 l/m 2 min 0 min 85 W/m 20,9 km/h (4 Bft) 96,15 %
22.11.2015 09:08 0,7 C 0,6 C 0,0 C 97 % 15 lf 1006,5 hPa 0,0 l/m 2 min 0 min 81 W/m 14,6 km/h (3 Bft) 95,74 %
22.11.2015 09:10 0,7 C 0,6 C 0,0 C 97 % 15 lf 1006,4 hPa 0,0 l/m 2 min 0 min 77 W/m 14,6 km/h (3 Bft) 97,87 %
22.11.2015 09:12 0,7 C 0,6 C 0,0 C 97 % 15 lf 1006,5 hPa 0,0 l/m 0 min 0 min 52 W/m 14,6 km/h (3 Bft) 95,83 %
22.11.2015 09:14 0,8 C 0,6 C 0,0 C 97 % 15 lf 1006,5 hPa 0,0 l/m 2 min 0 min 94 W/m 16,7 km/h (3 Bft) 97,87 %
22.11.2015 09:16 0,8 C 1,1 C 0,0 C 97 % 15 lf 1006,5 hPa 0,0 l/m 2 min 0 min 95 W/m 18,8 km/h (3 Bft) 91,49 %
22.11.2015 09:18 0,8 C 1,1 C 0,0 C 97 % 15 lf 1006,5 hPa 0,0 l/m 2 min 0 min 100 W/m 14,6 km/h (3 Bft) 95,65 %
22.11.2015 09:20 0,8 C 1,1 C 0,0 C 97 % 15 lf 1006,6 hPa 0,0 l/m 2 min 0 min 103 W/m 12,6 km/h (3 Bft) 97,87 %
22.11.2015 09:22 0,8 C 1,1 C 0,0 C 97 % 15 lf 1006,6 hPa 0,0 l/m 2 min 0 min 108 W/m 20,9 km/h (4 Bft) 93,62 %
22.11.2015 09:24 0,9 C 1,1 C 0,0 C 97 % 15 lf 1006,6 hPa 0,0 l/m 2 min 0 min 111 W/m 14,6 km/h (3 Bft) 95,74 %
22.11.2015 09:26 0,9 C 1,1 C 0,0 C 97 % 15 lf 1006,6 hPa 0,0 l/m 2 min 0 min 114 W/m 12,6 km/h (3 Bft) 95,74 %
22.11.2015 09:28 0,9 C 1,1 C 0,0 C 97 % 15 lf 1006,6 hPa 0,0 l/m 2 min 0 min 118 W/m 18,8 km/h (3 Bft) 97,87 %
22.11.2015 09:30 0,9 C 1,1 C 0,0 C 97 % 15 lf 1006,6 hPa 0,0 l/m 2 min 0 min 122 W/m 14,6 km/h (3 Bft) 97,83 %
22.11.2015 09:32 1,0 C 1,1 C 0,6 C 97 % 15 lf 1006,6 hPa 0,0 l/m 2 min 0 min 126 W/m 16,7 km/h (3 Bft) 97,92 %
22.11.2015 09:34 1,0 C 1,1 C 0,6 C 97 % 15 lf 1006,7 hPa 0,0 l/m 2 min 0 min 128 W/m 16,7 km/h (3 Bft) 95,74 %
22.11.2015 09:36 1,1 C 1,1 C 0,6 C 97 % 15 lf 1006,7 hPa 0,0 l/m 2 min 0 min 133 W/m 14,6 km/h (3 Bft) 96,00 %
22.11.2015 09:38 1,1 C 1,1 C 0,6 C 97 % 15 lf 1006,6 hPa 0,0 l/m 2 min 0 min 135 W/m 20,9 km/h (4 Bft) 93,62 %
22.11.2015 09:40 1,1 C 1,1 C 0,6 C 97 % 15 lf 1006,6 hPa 0,0 l/m 2 min 0 min 141 W/m 14,6 km/h (3 Bft) 93,48 %
22.11.2015 09:42 1,2 C 1,1 C 0,6 C 97 % 15 lf 1006,6 hPa 0,0 l/m 2 min 0 min 146 W/m 16,7 km/h (3 Bft) 97,87 %
22.11.2015 09:44 1,2 C 1,7 C 0,6 C 97 % 15 lf 1006,7 hPa 0,0 l/m 2 min 0 min 149 W/m 18,8 km/h (3 Bft) 93,62 %
22.11.2015 09:46 1,2 C 1,7 C 0,6 C 97 % 15 lf 1006,7 hPa 0,0 l/m 2 min 0 min 149 W/m 12,6 km/h (3 Bft) 95,74 %
22.11.2015 09:48 1,2 C 1,7 C 0,6 C 97 % 15 lf 1006,8 hPa 0,0 l/m 2 min 0 min 154 W/m 14,6 km/h (3 Bft) 97,87 %
22.11.2015 09:50 1,3 C 1,7 C 0,6 C 97 % 15 lf 1006,8 hPa 0,0 l/m 2 min 0 min 158 W/m 14,6 km/h (3 Bft) 93,62 %
22.11.2015 09:52 1,3 C 1,7 C 0,6 C 97 % 15 lf 1006,7 hPa 0,0 l/m 2 min 0 min 161 W/m 10,5 km/h (2 Bft) 97,83 %
22.11.2015 09:54 1,3 C 1,7 C 0,6 C 97 % 15 lf 1006,8 hPa 0,0 l/m 2 min 0 min 164 W/m 12,6 km/h (3 Bft) 97,87 %
22.11.2015 09:56 1,4 C 1,7 C 0,6 C 97 % 15 lf 1006,7 hPa 0,0 l/m 2 min 0 min 166 W/m 14,6 km/h (3 Bft) 95,74 %
22.11.2015 09:58 1,4 C 1,7 C 0,6 C 97 % 15 lf 1006,7 hPa 0,0 l/m 2 min 0 min 171 W/m 14,6 km/h (3 Bft) 97,87 %
22.11.2015 10:00 1,4 C 1,7 C 0,6 C 97 % 15 lf 1006,8 hPa 0,0 l/m 2 min 0 min 176 W/m 16,7 km/h (3 Bft) 97,87 %
22.11.2015 10:02 1,4 C 2,2 C 0,6 C 97 % 15 lf 1006,8 hPa 0,0 l/m 2 min 0 min 180 W/m 14,6 km/h (3 Bft) 93,62 %
22.11.2015 10:04 1,5 C 2,2 C 1,1 C 97 % 15 lf 1006,8 hPa 0,0 l/m 2 min 0 min 164 W/m 20,9 km/h (4 Bft) 95,65 %
22.11.2015 10:06 1,5 C 2,8 C 1,1 C 97 % 15 lf 1006,7 hPa 0,0 l/m 2 min 0 min 190 W/m 12,6 km/h (3 Bft) 100,00 %
22.11.2015 10:08 1,6 C 3,9 C 1,1 C 97 % 15 lf 1006,7 hPa 0,0 l/m 2 min 0 min 178 W/m 14,6 km/h (3 Bft) 91,49 %
22.11.2015 10:10 1,6 C 3,9 C 1,1 C 97 % 15 lf 1006,8 hPa 0,0 l/m 2 min 0 min 178 W/m 18,8 km/h (3 Bft) 95,74 %
22.11.2015 10:12 1,7 C 4,4 C 1,1 C 97 % 15 lf 1006,8 hPa 0,0 l/m 2 min 0 min 197 W/m 23,0 km/h (4 Bft) 97,87 %
22.11.2015 10:14 1,7 C 4,4 C 1,1 C 97 % 15 lf 1006,8 hPa 0,0 l/m 2 min 0 min 191 W/m 16,7 km/h (3 Bft) 97,83 %
22.11.2015 10:16 1,7 C 5,0 C 1,1 C 97 % 15 lf 1006,9 hPa 0,0 l/m 2 min 0 min 205 W/m 20,9 km/h (4 Bft) 97,87 %
22.11.2015 10:18 1,8 C 5,0 C 1,1 C 97 % 15 lf 1006,9 hPa 0,0 l/m 2 min 0 min 203 W/m 20,9 km/h (4 Bft) 97,87 %
22.11.2015 10:20 1,8 C 5,0 C 1,1 C 97 % 15 lf 1006,9 hPa 0,2 l/m 2 min 0 min 209 W/m 12,6 km/h (3 Bft) 95,74 %
22.11.2015 10:22 1,9 C 5,0 C 1,1 C 97 % 15 lf 1006,9 hPa 0,0 l/m 2 min 0 min 214 W/m 18,8 km/h (3 Bft) 100,00 %
22.11.2015 10:24 1,9 C 5,0 C 1,1 C 97 % 15 lf 1006,9 hPa 0,0 l/m 2 min 0 min 220 W/m 16,7 km/h (3 Bft) 97,87 %
22.11.2015 10:26 1,9 C 5,6 C 1,1 C 97 % 15 lf 1007,0 hPa 0,0 l/m 2 min 0 min 216 W/m 18,8 km/h (3 Bft) 95,65 %
22.11.2015 10:28 2,0 C 6,1 C 1,1 C 97 % 15 lf 1007,0 hPa 0,0 l/m 2 min 0 min 219 W/m 18,8 km/h (3 Bft) 100,00 %
22.11.2015 10:30 2,1 C 5,6 C 1,1 C 97 % 15 lf 1007,1 hPa 0,0 l/m 2 min 0 min 188 W/m 16,7 km/h (3 Bft) 97,87 %
22.11.2015 10:32 2,1 C 6,1 C 1,1 C 97 % 15 lf 1007,0 hPa 0,0 l/m 2 min 0 min 139 W/m 20,9 km/h (4 Bft) 100,00 %
22.11.2015 10:34 2,1 C 7,2 C 1,1 C 97 % 15 lf 1007,1 hPa 0,0 l/m 2 min 0 min 227 W/m 18,8 km/h (3 Bft) 97,87 %
22.11.2015 10:36 2,2 C 7,8 C 1,1 C 97 % 15 lf 1007,1 hPa 0,0 l/m 2 min 0 min 233 W/m 14,6 km/h (3 Bft) 100,00 %
22.11.2015 10:38 2,2 C 8,9 C 1,7 C 97 % 15 lf 1007,1 hPa 0,0 l/m 2 min 0 min 233 W/m 14,6 km/h (3 Bft) 100,00 %
22.11.2015 10:40 2,3 C 8,3 C 1,7 C 97 % 15 lf 1007,2 hPa 0,0 l/m 2 min 0 min 242 W/m 23,0 km/h (4 Bft) 97,87 %
22.11.2015 10:42 2,3 C 8,9 C 1,7 C 97 % 15 lf 1007,2 hPa 0,0 l/m 2 min 0 min 242 W/m 16,7 km/h (3 Bft) 100,00 %
22.11.2015 10:44 2,4 C 8,9 C 1,7 C 97 % 15 lf 1007,2 hPa 0,0 l/m 2 min 0 min 251 W/m 20,9 km/h (4 Bft) 100,00 %
22.11.2015 10:46 2,5 C 9,4 C 1,7 C 97 % 15 lf 1007,4 hPa 0,0 l/m 2 min 0 min 269 W/m 14,6 km/h (3 Bft) 95,74 %
22.11.2015 10:48 2,6 C 10,0 C 1,7 C 97 % 15 lf 1007,5 hPa 0,0 l/m 2 min 0 min 280 W/m 12,6 km/h (3 Bft) 97,87 %
22.11.2015 10:50 2,7 C 10,6 C 1,7 C 97 % 15 lf 1007,5 hPa 0,0 l/m 2 min 0 min 298 W/m 14,6 km/h (3 Bft) 100,00 %
22.11.2015 10:52 2,7 C 10,6 C 2,2 C 97 % 15 lf 1007,5 hPa 0,0 l/m 2 min 0 min 305 W/m 12,6 km/h (3 Bft) 97,83 %
22.11.2015 10:54 2,8 C 10,6 C 2,2 C 97 % 14 lf 1007,6 hPa 0,0 l/m 2 min 0 min 281 W/m 23,0 km/h (4 Bft) 97,87 %
22.11.2015 10:56 2,9 C 9,4 C 2,2 C 97 % 15 lf 1007,7 hPa 0,0 l/m 2 min 0 min 222 W/m 18,8 km/h (3 Bft) 100,00 %
22.11.2015 10:58 2,9 C 8,3 C 2,2 C 97 % 14 lf 1007,6 hPa 0,0 l/m 2 min 0 min 166 W/m 18,8 km/h (3 Bft) 97,87 %
22.11.2015 11:00 3,0 C 9,4 C 2,2 C 97 % 14 lf 1007,7 hPa 0,0 l/m 2 min 0 min 193 W/m 18,8 km/h (3 Bft) 97,87 %
22.11.2015 11:02 3,1 C 8,9 C 2,2 C 97 % 12 lf 1007,6 hPa 0,0 l/m 2 min 0 min 331 W/m 23,0 km/h (4 Bft) 97,87 %
22.11.2015 11:04 3,2 C 9,4 C 2,8 C 97 % 10 lf 1007,7 hPa 0,0 l/m 2 min 0 min 372 W/m 25,1 km/h (4 Bft) 97,83 %
22.11.2015 11:06 3,2 C 10,0 C 2,8 C 97 % 9 lf 1007,7 hPa 0,0 l/m 2 min 0 min 397 W/m 18,8 km/h (3 Bft) 97,87 %
22.11.2015 11:08 3,3 C 10,0 C 2,8 C 97 % 9 lf 1007,7 hPa 0,0 l/m 2 min 0 min 276 W/m 18,8 km/h (3 Bft) 97,87 %
22.11.2015 11:10 3,4 C 8,3 C 2,8 C 97 % 6 lf 1007,7 hPa 0,0 l/m 2 min 0 min 193 W/m 16,7 km/h (3 Bft) 97,87 %
22.11.2015 11:12 3,4 C 7,2 C 2,8 C 97 % 5 lf 1007,7 hPa 0,0 l/m 0 min 0 min 120 W/m 10,5 km/h (2 Bft) 95,74 %
22.11.2015 11:14 3,4 C 6,7 C 2,2 C 97 % 4 lf 1007,7 hPa 0,0 l/m 0 min 0 min 123 W/m 18,8 km/h (3 Bft) 95,74 %
22.11.2015 11:16 3,5 C 6,1 C 2,2 C 97 % 3 lf 1007,7 hPa 0,0 l/m 0 min 0 min 130 W/m 18,8 km/h (3 Bft) 95,65 %
22.11.2015 11:18 3,5 C 5,6 C 2,2 C 97 % 3 lf 1007,8 hPa 0,0 l/m 0 min 0 min 117 W/m 20,9 km/h (4 Bft) 93,62 %
22.11.2015 11:20 3,5 C 6,1 C 2,2 C 97 % 2 lf 1007,8 hPa 0,0 l/m 0 min 0 min 125 W/m 20,9 km/h (4 Bft) 91,49 %
22.11.2015 11:22 3,5 C 5,6 C 2,2 C 97 % 2 lf 1007,7 hPa 0,0 l/m 0 min 0 min 124 W/m 23,0 km/h (4 Bft) 95,74 %
22.11.2015 11:24 3,4 C 5,6 C 2,2 C 97 % 1 lf 1007,7 hPa 0,0 l/m 0 min 0 min 127 W/m 16,7 km/h (3 Bft) 95,74 %
22.11.2015 11:26 3,4 C 7,8 C 2,2 C 96 % 1 lf 1007,7 hPa 0,0 l/m 2 min 0 min 268 W/m 23,0 km/h (4 Bft) 93,62 %
22.11.2015 11:28 3,4 C 7,8 C 2,2 C 96 % 1 lf 1007,7 hPa 0,0 l/m 2 min 0 min 222 W/m 18,8 km/h (3 Bft) 93,48 %
22.11.2015 11:30 3,5 C 8,3 C 2,2 C 96 % 0 lf 1007,8 hPa 0,0 l/m 2 min 0 min 173 W/m 18,8 km/h (3 Bft) 91,49 %
22.11.2015 11:32 3,5 C 8,3 C 2,2 C 96 % 0 lf 1007,8 hPa 0,0 l/m 2 min 0 min 181 W/m 20,9 km/h (4 Bft) 90,57 %
22.11.2015 11:34 3,6 C 8,9 C 2,2 C 96 % 0 lf 1007,8 hPa 0,0 l/m 2 min 0 min 214 W/m 23,0 km/h (4 Bft) 93,62 %
22.11.2015 11:36 3,6 C 8,9 C 2,2 C 96 % 0 lf 1007,8 hPa 0,0 l/m 2 min 0 min 211 W/m 23,0 km/h (4 Bft) 100,00 %
22.11.2015 11:38 3,6 C 10,6 C 2,2 C 96 % 0 lf 1007,8 hPa 0,0 l/m 2 min 0 min 268 W/m 20,9 km/h (4 Bft) 91,84 %
22.11.2015 11:40 3,7 C 12,8 C 2,8 C 95 % 0 lf 1007,7 hPa 0,0 l/m 2 min 0 min 327 W/m 14,6 km/h (3 Bft) 96,43 %
22.11.2015 11:42 3,7 C 13,9 C 2,8 C 95 % 0 lf 1007,7 hPa 0,0 l/m 2 min 0 min 328 W/m 14,6 km/h (3 Bft) 93,62 %
22.11.2015 11:44 3,8 C 14,4 C 2,8 C 95 % 0 lf 1007,8 hPa 0,0 l/m 2 min 0 min 328 W/m 14,6 km/h (3 Bft) 93,62 %
22.11.2015 11:46 3,9 C 14,4 C 3,3 C 95 % 0 lf 1007,8 hPa 0,0 l/m 2 min 0 min 389 W/m 12,6 km/h (3 Bft) 95,74 %
22.11.2015 11:48 4,1 C 15,0 C 3,3 C 95 % 0 lf 1007,8 hPa 0,0 l/m 2 min 0 min 440 W/m 14,6 km/h (3 Bft) 95,65 %
22.11.2015 11:50 4,2 C 12,8 C 3,9 C 95 % 0 lf 1007,8 hPa 0,0 l/m 2 min 0 min 428 W/m 18,8 km/h (3 Bft) 93,62 %
22.11.2015 11:52 4,3 C 11,1 C 3,9 C 95 % 0 lf 1007,9 hPa 0,0 l/m 2 min 0 min 255 W/m 18,8 km/h (3 Bft) 95,83 %
22.11.2015 11:54 4,4 C 8,9 C 3,3 C 95 % 0 lf 1007,8 hPa 0,0 l/m 2 min 0 min 193 W/m 25,1 km/h (4 Bft) 100,00 %
22.11.2015 11:56 4,4 C 7,8 C 3,3 C 94 % 0 lf 1007,8 hPa 0,0 l/m 2 min 0 min 187 W/m 20,9 km/h (4 Bft) 97,87 %
22.11.2015 11:58 4,4 C 7,8 C 3,3 C 94 % 0 lf 1007,8 hPa 0,0 l/m 2 min 0 min 193 W/m 16,7 km/h (3 Bft) 95,74 %
22.11.2015 12:00 4,5 C 7,8 C 3,3 C 94 % 0 lf 1007,8 hPa 0,0 l/m 2 min 0 min 196 W/m 14,6 km/h (3 Bft) 100,00 %
22.11.2015 12:02 4,5 C 7,8 C 3,3 C 93 % 0 lf 1007,8 hPa 0,0 l/m 2 min 0 min 184 W/m 12,6 km/h (3 Bft) 95,83 %
22.11.2015 12:06 4,6 C 7,8 C 3,9 C 93 % 0 lf 1007,9 hPa 0,0 l/m 2 min 0 min 197 W/m 14,6 km/h (3 Bft) 97,78 %
22.11.2015 12:08 4,6 C 8,3 C 3,9 C 92 % 0 lf 1007,9 hPa 0,0 l/m 2 min 0 min 209 W/m 12,6 km/h (3 Bft) 95,74 %
22.11.2015 12:10 4,7 C 8,3 C 3,9 C 92 % 0 lf 1007,9 hPa 0,0 l/m 2 min 0 min 228 W/m 16,7 km/h (3 Bft) 100,00 %
22.11.2015 12:12 4,7 C 8,3 C 3,9 C 92 % 0 lf 1007,9 hPa 0,0 l/m 2 min 0 min 252 W/m 16,7 km/h (3 Bft) 97,83 %
22.11.2015 12:14 4,7 C 8,9 C 3,9 C 91 % 0 lf 1007,9 hPa 0,0 l/m 2 min 0 min 276 W/m 18,8 km/h (3 Bft) 97,87 %
22.11.2015 12:16 4,7 C 8,3 C 3,9 C 91 % 0 lf 1007,9 hPa 0,0 l/m 2 min 0 min 211 W/m 16,7 km/h (3 Bft) 93,62 %
22.11.2015 12:18 4,8 C 8,3 C 3,9 C 91 % 0 lf 1007,8 hPa 0,0 l/m 2 min 0 min 181 W/m 16,7 km/h (3 Bft) 93,62 %
22.11.2015 12:20 4,8 C 8,3 C 3,9 C 91 % 0 lf 1007,8 hPa 0,0 l/m 2 min 0 min 189 W/m 16,7 km/h (3 Bft) 97,87 %
22.11.2015 12:22 4,8 C 8,3 C 3,9 C 90 % 0 lf 1007,8 hPa 0,0 l/m 2 min 0 min 238 W/m 16,7 km/h (3 Bft) 95,92 %
22.11.2015 12:24 4,8 C 8,3 C 3,9 C 90 % 0 lf 1007,8 hPa 0,0 l/m 2 min 0 min 259 W/m 23,0 km/h (4 Bft) 95,65 %
22.11.2015 12:26 4,8 C 8,3 C 3,9 C 90 % 0 lf 1007,8 hPa 0,0 l/m 2 min 0 min 249 W/m 16,7 km/h (3 Bft) 91,49 %
22.11.2015 12:28 4,9 C 8,3 C 3,9 C 89 % 0 lf 1007,8 hPa 0,0 l/m 2 min 0 min 281 W/m 23,0 km/h (4 Bft) 91,49 %
22.11.2015 12:30 4,9 C 10,6 C 3,9 C 89 % 0 lf 1007,8 hPa 0,0 l/m 2 min 0 min 378 W/m 20,9 km/h (4 Bft) 95,74 %
22.11.2015 12:32 5,0 C 11,7 C 3,9 C 89 % 0 lf 1007,8 hPa 0,0 l/m 2 min 0 min 367 W/m 20,9 km/h (4 Bft) 93,62 %
22.11.2015 12:34 5,1 C 11,1 C 4,4 C 88 % 0 lf 1007,8 hPa 0,0 l/m 2 min 0 min 280 W/m 14,6 km/h (3 Bft) 93,62 %
22.11.2015 12:36 5,2 C 10,6 C 3,9 C 88 % 0 lf 1007,8 hPa 0,0 l/m 2 min 0 min 266 W/m 18,8 km/h (3 Bft) 95,83 %
22.11.2015 12:38 5,2 C 9,4 C 3,9 C 88 % 0 lf 1007,8 hPa 0,0 l/m 2 min 0 min 190 W/m 14,6 km/h (3 Bft) 95,74 %
22.11.2015 12:40 5,2 C 8,3 C 3,9 C 88 % 0 lf 1007,9 hPa 0,0 l/m 2 min 0 min 189 W/m 20,9 km/h (4 Bft) 93,62 %
22.11.2015 12:42 5,3 C 8,3 C 3,9 C 87 % 0 lf 1007,9 hPa 0,0 l/m 2 min 0 min 195 W/m 18,8 km/h (3 Bft) 91,43 %
22.11.2015 12:44 5,3 C 7,8 C 3,9 C 87 % 0 lf 1007,8 hPa 0,0 l/m 2 min 0 min 207 W/m 25,1 km/h (4 Bft) 95,74 %
22.11.2015 12:46 5,3 C 7,8 C 4,4 C 87 % 0 lf 1007,8 hPa 0,0 l/m 2 min 0 min 200 W/m 29,3 km/h (5 Bft) 91,49 %
22.11.2015 12:48 5,3 C 7,8 C 3,9 C 86 % 0 lf 1007,9 hPa 0,0 l/m 2 min 0 min 188 W/m 18,8 km/h (3 Bft) 95,65 %
22.11.2015 12:50 5,4 C 7,8 C 4,4 C 86 % 0 lf 1007,9 hPa 0,0 l/m 2 min 0 min 180 W/m 23,0 km/h (4 Bft) 95,74 %
22.11.2015 12:52 5,4 C 7,2 C 3,9 C 86 % 0 lf 1008,0 hPa 0,0 l/m 2 min 0 min 167 W/m 25,1 km/h (4 Bft) 95,74 %
22.11.2015 12:54 5,4 C 7,2 C 3,9 C 86 % 0 lf 1008,0 hPa 0,0 l/m 2 min 0 min 158 W/m 16,7 km/h (3 Bft) 93,62 %
22.11.2015 12:56 5,4 C 7,2 C 3,9 C 86 % 0 lf 1008,0 hPa 0,0 l/m 2 min 0 min 172 W/m 25,1 km/h (4 Bft) 91,49 %
22.11.2015 12:58 5,4 C 7,2 C 3,9 C 85 % 0 lf 1008,0 hPa 0,0 l/m 0 min 0 min 152 W/m 16,7 km/h (3 Bft) 95,74 %
22.11.2015 13:00 5,4 C 8,3 C 3,9 C 85 % 0 lf 1008,0 hPa 0,0 l/m 2 min 0 min 157 W/m 18,8 km/h (3 Bft) 97,83 %
22.11.2015 13:02 5,4 C 7,8 C 3,9 C 85 % 0 lf 1008,1 hPa 0,0 l/m 0 min 0 min 148 W/m 23,0 km/h (4 Bft) 95,74 %
22.11.2015 13:04 5,4 C 7,2 C 3,9 C 85 % 0 lf 1008,1 hPa 0,0 l/m 0 min 0 min 129 W/m 18,8 km/h (3 Bft) 97,87 %
22.11.2015 13:06 5,4 C 7,2 C 3,9 C 85 % 0 lf 1008,1 hPa 0,0 l/m 0 min 0 min 127 W/m 25,1 km/h (4 Bft) 92,73 %
22.11.2015 13:08 5,4 C 6,7 C 3,9 C 85 % 0 lf 1008,0 hPa 0,0 l/m 0 min 0 min 126 W/m 18,8 km/h (3 Bft) 95,74 %
22.11.2015 13:10 5,4 C 6,7 C 3,9 C 85 % 0 lf 1008,0 hPa 0,0 l/m 0 min 0 min 127 W/m 18,8 km/h (3 Bft) 97,83 %
22.11.2015 13:12 5,4 C 6,7 C 3,9 C 85 % 0 lf 1008,0 hPa 0,0 l/m 0 min 0 min 128 W/m 20,9 km/h (4 Bft) 97,87 %
22.11.2015 13:14 5,3 C 6,7 C 3,9 C 85 % 0 lf 1008,0 hPa 0,0 l/m 0 min 0 min 127 W/m 23,0 km/h (4 Bft) 97,87 %
22.11.2015 13:16 5,3 C 6,7 C 3,9 C 84 % 0 lf 1008,0 hPa 0,0 l/m 0 min 0 min 121 W/m 25,1 km/h (4 Bft) 97,87 %
22.11.2015 13:18 5,3 C 6,7 C 3,3 C 84 % 0 lf 1007,9 hPa 0,0 l/m 0 min 0 min 117 W/m 23,0 km/h (4 Bft) 95,74 %
22.11.2015 13:20 5,3 C 6,7 C 3,3 C 84 % 0 lf 1007,9 hPa 0,0 l/m 0 min 0 min 114 W/m 20,9 km/h (4 Bft) 95,74 %
22.11.2015 13:22 5,3 C 6,7 C 3,3 C 84 % 0 lf 1007,9 hPa 0,0 l/m 0 min 0 min 114 W/m 12,6 km/h (3 Bft) 95,65 %
22.11.2015 13:24 5,3 C 6,7 C 3,3 C 84 % 0 lf 1007,8 hPa 0,0 l/m 0 min 0 min 123 W/m 18,8 km/h (3 Bft) 93,62 %
22.11.2015 13:26 5,3 C 6,7 C 3,3 C 84 % 0 lf 1007,9 hPa 0,0 l/m 0 min 0 min 140 W/m 27,2 km/h (4 Bft) 100,00 %
22.11.2015 13:28 5,2 C 7,2 C 3,3 C 83 % 0 lf 1007,8 hPa 0,0 l/m 2 min 0 min 151 W/m 14,6 km/h (3 Bft) 100,00 %
22.11.2015 13:30 5,2 C 7,2 C 3,9 C 83 % 0 lf 1007,8 hPa 0,0 l/m 2 min 0 min 154 W/m 23,0 km/h (4 Bft) 97,87 %
22.11.2015 13:32 5,3 C 7,2 C 3,9 C 83 % 0 lf 1007,9 hPa 0,0 l/m 2 min 0 min 160 W/m 18,8 km/h (3 Bft) 97,92 %
22.11.2015 13:34 5,3 C 7,2 C 3,9 C 83 % 0 lf 1007,9 hPa 0,0 l/m 2 min 0 min 167 W/m 16,7 km/h (3 Bft) 97,83 %
22.11.2015 13:36 5,3 C 7,2 C 3,9 C 83 % 0 lf 1007,9 hPa 0,0 l/m 2 min 0 min 178 W/m 20,9 km/h (4 Bft) 100,00 %
22.11.2015 13:38 5,3 C 7,2 C 3,9 C 83 % 0 lf 1007,8 hPa 0,0 l/m 2 min 0 min 187 W/m 20,9 km/h (4 Bft) 100,00 %
22.11.2015 13:40 5,3 C 7,8 C 3,9 C 84 % 0 lf 1007,9 hPa 0,0 l/m 2 min 0 min 190 W/m 18,8 km/h (3 Bft) 97,87 %
22.11.2015 13:42 5,4 C 7,2 C 3,9 C 84 % 0 lf 1007,9 hPa 0,0 l/m 2 min 0 min 171 W/m 23,0 km/h (4 Bft) 100,00 %
22.11.2015 13:44 5,4 C 7,2 C 3,9 C 84 % 0 lf 1007,9 hPa 0,0 l/m 2 min 0 min 163 W/m 27,2 km/h (4 Bft) 100,00 %
22.11.2015 13:46 5,4 C 7,2 C 3,9 C 83 % 0 lf 1007,9 hPa 0,0 l/m 2 min 0 min 163 W/m 18,8 km/h (3 Bft) 100,00 %
22.11.2015 13:48 5,4 C 7,2 C 4,4 C 83 % 0 lf 1007,9 hPa 0,0 l/m 2 min 0 min 165 W/m 12,6 km/h (3 Bft) 97,87 %
22.11.2015 13:50 5,4 C 7,2 C 4,4 C 83 % 0 lf 1008,0 hPa 0,0 l/m 2 min 0 min 160 W/m 16,7 km/h (3 Bft) 100,00 %
22.11.2015 13:52 5,4 C 7,2 C 4,4 C 84 % 0 lf 1008,0 hPa 0,0 l/m 2 min 0 min 150 W/m 18,8 km/h (3 Bft) 97,87 %
22.11.2015 13:54 5,5 C 7,2 C 4,4 C 83 % 0 lf 1008,1 hPa 0,0 l/m 2 min 0 min 137 W/m 23,0 km/h (4 Bft) 97,87 %
22.11.2015 13:56 5,5 C 7,2 C 3,9 C 83 % 0 lf 1008,1 hPa 0,0 l/m 0 min 0 min 125 W/m 16,7 km/h (3 Bft) 100,00 %
22.11.2015 13:58 5,5 C 7,2 C 3,9 C 83 % 0 lf 1008,2 hPa 0,0 l/m 0 min 0 min 116 W/m 16,7 km/h (3 Bft) 97,83 %
22.11.2015 14:00 5,5 C 6,7 C 3,9 C 83 % 0 lf 1008,1 hPa 0,0 l/m 0 min 0 min 111 W/m 18,8 km/h (3 Bft) 97,87 %
22.11.2015 14:02 5,5 C 6,7 C 3,9 C 83 % 0 lf 1008,1 hPa 0,0 l/m 0 min 0 min 111 W/m 20,9 km/h (4 Bft) 97,87 %
22.11.2015 14:04 5,5 C 6,7 C 3,9 C 83 % 0 lf 1008,2 hPa 0,0 l/m 0 min 0 min 105 W/m 16,7 km/h (3 Bft) 95,74 %
22.11.2015 14:06 5,4 C 6,7 C 3,9 C 83 % 0 lf 1008,1 hPa 0,0 l/m 0 min 0 min 102 W/m 18,8 km/h (3 Bft) 89,36 %
22.11.2015 14:08 5,4 C 6,7 C 3,9 C 83 % 0 lf 1008,3 hPa 0,0 l/m 0 min 0 min 105 W/m 25,1 km/h (4 Bft) 95,74 %
22.11.2015 14:10 5,4 C 6,1 C 3,9 C 83 % 0 lf 1008,2 hPa 0,0 l/m 0 min 0 min 109 W/m 20,9 km/h (4 Bft) 95,65 %
22.11.2015 14:12 5,4 C 6,7 C 3,3 C 83 % 0 lf 1008,2 hPa 0,0 l/m 0 min 0 min 113 W/m 31,4 km/h (5 Bft) 94,34 %
22.11.2015 14:14 5,4 C 7,2 C 3,9 C 83 % 0 lf 1008,2 hPa 0,0 l/m 2 min 0 min 131 W/m 27,2 km/h (4 Bft) 95,74 %
22.11.2015 14:16 5,3 C 7,8 C 3,9 C 83 % 0 lf 1008,3 hPa 0,0 l/m 2 min 0 min 152 W/m 25,1 km/h (4 Bft) 91,49 %
22.11.2015 14:18 5,3 C 7,8 C 3,9 C 83 % 0 lf 1008,3 hPa 0,0 l/m 2 min 0 min 150 W/m 20,9 km/h (4 Bft) 95,74 %
22.11.2015 14:20 5,3 C 8,3 C 3,9 C 83 % 0 lf 1008,3 hPa 0,0 l/m 2 min 0 min 158 W/m 20,9 km/h (4 Bft) 93,62 %
22.11.2015 14:22 5,3 C 8,3 C 3,9 C 83 % 0 lf 1008,3 hPa 0,0 l/m 2 min 0 min 150 W/m 25,1 km/h (4 Bft) 89,36 %
22.11.2015 14:24 5,4 C 8,3 C 3,9 C 83 % 0 lf 1008,3 hPa 0,0 l/m 2 min 0 min 126 W/m 16,7 km/h (3 Bft) 93,62 %
22.11.2015 14:26 5,4 C 7,8 C 3,9 C 83 % 0 lf 1008,4 hPa 0,0 l/m 2 min 0 min 132 W/m 23,0 km/h (4 Bft) 95,74 %
22.11.2015 14:28 5,4 C 7,2 C 3,9 C 83 % 0 lf 1008,4 hPa 0,0 l/m 2 min 0 min 132 W/m 20,9 km/h (4 Bft) 93,62 %
22.11.2015 14:30 5,4 C 7,2 C 3,9 C 83 % 0 lf 1008,4 hPa 0,0 l/m 2 min 0 min 141 W/m 20,9 km/h (4 Bft) 93,62 %
22.11.2015 14:32 5,4 C 7,2 C 3,9 C 83 % 0 lf 1008,4 hPa 0,0 l/m 2 min 0 min 138 W/m 23,0 km/h (4 Bft) 93,62 %
22.11.2015 14:34 5,4 C 7,2 C 3,9 C 83 % 3 lf 1008,4 hPa 0,0 l/m 2 min 0 min 125 W/m 41,8 km/h (6 Bft) 89,36 %
22.11.2015 14:36 5,4 C 6,7 C 3,9 C 82 % 4 lf 1008,4 hPa 0,0 l/m 2 min 2 min 110 W/m 23,0 km/h (4 Bft) 94,00 %
22.11.2015 14:38 5,4 C 6,7 C 3,9 C 82 % 2 lf 1008,3 hPa 0,0 l/m 0 min 2 min 91 W/m 25,1 km/h (4 Bft) 93,62 %
22.11.2015 14:40 5,4 C 6,7 C 3,9 C 82 % 0 lf 1008,4 hPa 0,0 l/m 0 min 0 min 77 W/m 20,9 km/h (4 Bft) 91,49 %
22.11.2015 14:42 5,4 C 6,1 C 3,9 C 82 % 0 lf 1008,4 hPa 0,0 l/m 0 min 0 min 75 W/m 25,1 km/h (4 Bft) 91,49 %
22.11.2015 14:44 5,4 C 6,1 C 3,9 C 81 % 0 lf 1008,4 hPa 0,0 l/m 0 min 0 min 71 W/m 29,3 km/h (5 Bft) 91,30 %
22.11.2015 14:46 5,4 C 5,6 C 3,9 C 81 % 0 lf 1008,4 hPa 0,0 l/m 0 min 0 min 69 W/m 29,3 km/h (5 Bft) 93,62 %
22.11.2015 14:48 5,4 C 5,6 C 3,3 C 81 % 0 lf 1008,4 hPa 0,0 l/m 0 min 0 min 67 W/m 23,0 km/h (4 Bft) 91,49 %
22.11.2015 14:50 5,3 C 5,6 C 3,3 C 81 % 0 lf 1008,5 hPa 0,0 l/m 0 min 0 min 66 W/m 33,5 km/h (5 Bft) 93,62 %
22.11.2015 14:52 5,3 C 5,6 C 3,3 C 80 % 0 lf 1008,5 hPa 0,0 l/m 0 min 0 min 63 W/m 23,0 km/h (4 Bft) 94,44 %
22.11.2015 14:54 5,2 C 5,6 C 3,3 C 80 % 0 lf 1008,5 hPa 0,0 l/m 0 min 0 min 59 W/m 23,0 km/h (4 Bft) 92,86 %
22.11.2015 14:56 5,2 C 5,0 C 3,3 C 80 % 0 lf 1008,5 hPa 0,0 l/m 0 min 0 min 60 W/m 23,0 km/h (4 Bft) 86,96 %
22.11.2015 14:58 5,2 C 5,0 C 3,3 C 80 % 0 lf 1008,5 hPa 0,0 l/m 0 min 0 min 63 W/m 27,2 km/h (4 Bft) 93,62 %
22.11.2015 15:00 5,1 C 5,0 C 3,3 C 81 % 0 lf 1008,4 hPa 0,0 l/m 0 min 0 min 65 W/m 20,9 km/h (4 Bft) 95,74 %
22.11.2015 15:02 5,1 C 5,0 C 3,3 C 81 % 0 lf 1008,5 hPa 0,0 l/m 0 min 0 min 67 W/m 20,9 km/h (4 Bft) 93,88 %
22.11.2015 15:04 5,0 C 5,0 C 3,3 C 81 % 0 lf 1008,5 hPa 0,0 l/m 0 min 0 min 68 W/m 16,7 km/h (3 Bft) 97,87 %
22.11.2015 15:06 4,9 C 5,0 C 3,3 C 81 % 0 lf 1008,5 hPa 0,0 l/m 0 min 0 min 70 W/m 12,6 km/h (3 Bft) 91,67 %
22.11.2015 15:08 4,9 C 5,0 C 3,3 C 81 % 0 lf 1008,5 hPa 0,0 l/m 0 min 0 min 70 W/m 25,1 km/h (4 Bft) 100,00 %
22.11.2015 15:10 4,9 C 5,0 C 3,3 C 82 % 0 lf 1008,5 hPa 0,0 l/m 0 min 0 min 70 W/m 23,0 km/h (4 Bft) 97,83 %
22.11.2015 15:12 4,8 C 5,0 C 3,3 C 82 % 0 lf 1008,5 hPa 0,0 l/m 0 min 0 min 67 W/m 23,0 km/h (4 Bft) 93,62 %
22.11.2015 15:14 4,8 C 5,0 C 3,3 C 82 % 0 lf 1008,6 hPa 0,0 l/m 0 min 0 min 63 W/m 23,0 km/h (4 Bft) 95,74 %
22.11.2015 15:16 4,7 C 5,0 C 3,3 C 83 % 0 lf 1008,6 hPa 0,0 l/m 0 min 0 min 59 W/m 27,2 km/h (4 Bft) 97,87 %
22.11.2015 15:18 4,7 C 4,4 C 3,3 C 83 % 0 lf 1008,6 hPa 0,0 l/m 0 min 0 min 55 W/m 18,8 km/h (3 Bft) 97,87 %
22.11.2015 15:20 4,6 C 4,4 C 3,3 C 83 % 0 lf 1008,5 hPa 0,0 l/m 0 min 0 min 52 W/m 23,0 km/h (4 Bft) 100,00 %
22.11.2015 15:22 4,6 C 4,4 C 3,3 C 83 % 0 lf 1008,5 hPa 0,0 l/m 0 min 0 min 48 W/m 12,6 km/h (3 Bft) 95,74 %
22.11.2015 15:24 4,6 C 4,4 C 3,3 C 84 % 0 lf 1008,5 hPa 0,0 l/m 0 min 0 min 45 W/m 14,6 km/h (3 Bft) 97,87 %
22.11.2015 15:26 4,5 C 4,4 C 3,3 C 84 % 0 lf 1008,6 hPa 0,0 l/m 0 min 0 min 42 W/m 14,6 km/h (3 Bft) 95,74 %
22.11.2015 15:28 4,4 C 4,4 C 3,3 C 84 % 0 lf 1008,6 hPa 0,0 l/m 0 min 0 min 39 W/m 18,8 km/h (3 Bft) 97,87 %
22.11.2015 15:30 4,4 C 4,4 C 3,3 C 84 % 0 lf 1008,7 hPa 0,0 l/m 0 min 0 min 36 W/m 20,9 km/h (4 Bft) 93,62 %
22.11.2015 15:32 4,4 C 4,4 C 3,3 C 84 % 0 lf 1008,8 hPa 0,0 l/m 0 min 0 min 33 W/m 23,0 km/h (4 Bft) 97,83 %
22.11.2015 15:34 4,3 C 4,4 C 3,3 C 84 % 0 lf 1008,8 hPa 0,0 l/m 0 min 0 min 32 W/m 20,9 km/h (4 Bft) 97,87 %
22.11.2015 15:36 4,3 C 4,4 C 3,3 C 84 % 0 lf 1008,8 hPa 0,0 l/m 0 min 0 min 30 W/m 27,2 km/h (4 Bft) 98,18 %
22.11.2015 15:38 4,3 C 4,4 C 3,3 C 84 % 0 lf 1008,9 hPa 0,0 l/m 0 min 0 min 28 W/m 23,0 km/h (4 Bft) 97,87 %
22.11.2015 15:40 4,3 C 4,4 C 3,3 C 85 % 0 lf 1009,0 hPa 0,0 l/m 0 min 0 min 25 W/m 20,9 km/h (4 Bft) 95,74 %
22.11.2015 15:42 4,2 C 4,4 C 2,8 C 85 % 0 lf 1009,0 hPa 0,0 l/m 0 min 0 min 22 W/m 29,3 km/h (5 Bft) 95,65 %
22.11.2015 15:44 4,2 C 4,4 C 2,8 C 85 % 0 lf 1009,0 hPa 0,0 l/m 0 min 0 min 19 W/m 25,1 km/h (4 Bft) 97,87 %
22.11.2015 15:46 4,2 C 4,4 C 2,8 C 85 % 0 lf 1009,0 hPa 0,0 l/m 0 min 0 min 18 W/m 27,2 km/h (4 Bft) 95,74 %
22.11.2015 15:48 4,2 C 3,9 C 2,8 C 85 % 0 lf 1009,1 hPa 0,0 l/m 0 min 0 min 16 W/m 25,1 km/h (4 Bft) 97,87 %
22.11.2015 15:50 4,1 C 3,9 C 2,8 C 85 % 0 lf 1009,1 hPa 0,0 l/m 0 min 0 min 16 W/m 23,0 km/h (4 Bft) 97,87 %
22.11.2015 15:52 4,1 C 3,9 C 2,8 C 85 % 0 lf 1009,1 hPa 0,0 l/m 0 min 0 min 16 W/m 20,9 km/h (4 Bft) 97,87 %
22.11.2015 15:54 4,1 C 3,9 C 2,8 C 85 % 0 lf 1009,2 hPa 0,0 l/m 0 min 0 min 16 W/m 20,9 km/h (4 Bft) 95,65 %
22.11.2015 15:56 4,0 C 3,9 C 2,8 C 85 % 0 lf 1009,3 hPa 0,0 l/m 0 min 0 min 14 W/m 18,8 km/h (3 Bft) 95,74 %
22.11.2015 15:58 4,0 C 3,9 C 2,8 C 85 % 0 lf 1009,4 hPa 0,0 l/m 0 min 0 min 12 W/m 14,6 km/h (3 Bft) 95,74 %
22.11.2015 16:00 3,9 C 3,9 C 2,8 C 85 % 0 lf 1009,3 hPa 0,0 l/m 0 min 0 min 11 W/m 27,2 km/h (4 Bft) 97,87 %
22.11.2015 16:02 3,9 C 3,9 C 2,8 C 85 % 3 lf 1009,5 hPa 0,0 l/m 0 min 0 min 10 W/m 20,9 km/h (4 Bft) 97,87 %
22.11.2015 16:04 3,8 C 3,9 C 2,8 C 85 % 4 lf 1009,5 hPa 0,0 l/m 0 min 2 min 8 W/m 23,0 km/h (4 Bft) 95,74 %
22.11.2015 16:06 3,8 C 3,9 C 2,2 C 85 % 5 lf 1009,5 hPa 0,0 l/m 0 min 2 min 6 W/m 20,9 km/h (4 Bft) 97,83 %
22.11.2015 16:08 3,8 C 3,9 C 2,2 C 85 % 15 lf 1009,6 hPa 0,0 l/m 0 min 2 min 3 W/m 37,7 km/h (5 Bft) 97,87 %
22.11.2015 16:10 3,8 C 3,3 C 1,7 C 85 % 15 lf 1009,8 hPa 0,0 l/m 0 min 2 min 0 W/m 39,7 km/h (6 Bft) 97,87 %
22.11.2015 16:12 3,7 C 3,3 C 1,1 C 85 % 15 lf 1010,0 hPa 0,0 l/m 0 min 2 min 0 W/m 31,4 km/h (5 Bft) 93,75 %
22.11.2015 16:14 3,6 C 2,8 C 0,6 C 85 % 15 lf 1010,1 hPa 0,0 l/m 0 min 2 min 0 W/m 33,5 km/h (5 Bft) 97,87 %
22.11.2015 16:16 3,3 C 2,2 C 0,6 C 85 % 15 lf 1010,1 hPa 0,0 l/m 0 min 2 min 0 W/m 31,4 km/h (5 Bft) 97,87 %
22.11.2015 16:18 3,2 C 2,2 C 0,6 C 85 % 15 lf 1010,2 hPa 0,2 l/m 0 min 2 min 0 W/m 18,8 km/h (3 Bft) 97,83 %
22.11.2015 16:20 3,1 C 2,2 C 0,0 C 86 % 15 lf 1010,1 hPa 0,0 l/m 0 min 2 min 0 W/m 20,9 km/h (4 Bft) 100,00 %
22.11.2015 16:22 2,9 C 2,2 C 0,0 C 86 % 15 lf 1010,1 hPa 0,2 l/m 0 min 2 min 0 W/m 20,9 km/h (4 Bft) 97,87 %
22.11.2015 16:24 2,8 C 1,7 C 0,0 C 86 % 15 lf 1010,1 hPa 0,0 l/m 0 min 2 min 0 W/m 29,3 km/h (5 Bft) 95,74 %
22.11.2015 16:26 2,7 C 1,7 C 0,0 C 87 % 15 lf 1010,1 hPa 0,0 l/m 0 min 2 min 0 W/m 20,9 km/h (4 Bft) 97,87 %
22.11.2015 16:28 2,6 C 1,7 C 0,0 C 87 % 15 lf 1010,1 hPa 0,0 l/m 0 min 2 min 1 W/m 18,8 km/h (3 Bft) 95,74 %
22.11.2015 16:30 2,4 C 1,7 C 0,0 C 87 % 15 lf 1010,0 hPa 0,2 l/m 0 min 2 min 5 W/m 14,6 km/h (3 Bft) 97,83 %
22.11.2015 16:32 2,4 C 1,7 C 0,0 C 87 % 15 lf 1009,9 hPa 0,0 l/m 0 min 2 min 5 W/m 8,4 km/h (2 Bft) 97,92 %
22.11.2015 16:34 2,3 C 1,7 C 0,0 C 88 % 15 lf 1009,8 hPa 0,0 l/m 0 min 2 min 5 W/m 14,6 km/h (3 Bft) 97,87 %
22.11.2015 16:36 2,2 C 1,7 C 0,0 C 88 % 15 lf 1009,8 hPa 0,0 l/m 0 min 2 min 5 W/m 12,6 km/h (3 Bft) 97,96 %
22.11.2015 16:38 2,2 C 1,1 C 0,0 C 88 % 15 lf 1009,8 hPa 0,0 l/m 0 min 2 min 5 W/m 10,5 km/h (2 Bft) 95,65 %
22.11.2015 16:40 2,2 C 1,1 C 0,0 C 88 % 15 lf 1009,8 hPa 0,0 l/m 0 min 2 min 5 W/m 16,7 km/h (3 Bft) 95,74 %
22.11.2015 16:42 2,1 C 1,1 C 0,0 C 89 % 15 lf 1010,0 hPa 0,2 l/m 0 min 2 min 5 W/m 10,5 km/h (2 Bft) 95,74 %
22.11.2015 16:44 2,1 C 1,1 C 0,0 C 89 % 15 lf 1009,9 hPa 0,0 l/m 0 min 0 min 5 W/m 10,5 km/h (2 Bft) 97,87 %
22.11.2015 16:46 2,0 C 1,1 C 0,0 C 89 % 15 lf 1010,1 hPa 0,0 l/m 0 min 0 min 5 W/m 8,4 km/h (2 Bft) 97,87 %
22.11.2015 16:48 2,0 C 1,1 C 0,0 C 89 % 15 lf 1010,1 hPa 0,0 l/m 0 min 0 min 5 W/m 12,6 km/h (3 Bft) 97,87 %
22.11.2015 16:50 1,9 C 1,1 C 0,0 C 89 % 15 lf 1010,1 hPa 0,0 l/m 0 min 0 min 5 W/m 8,4 km/h (2 Bft) 97,83 %
22.11.2015 16:52 1,9 C 0,6 C 0,0 C 89 % 15 lf 1010,2 hPa 0,0 l/m 0 min 0 min 5 W/m 8,4 km/h (2 Bft) 97,87 %
22.11.2015 16:54 1,9 C 0,6 C 0,0 C 90 % 15 lf 1010,2 hPa 0,0 l/m 0 min 0 min 1 W/m 6,3 km/h (2 Bft) 93,62 %
22.11.2015 16:56 1,8 C 0,6 C 0,0 C 90 % 15 lf 1010,3 hPa 0,0 l/m 0 min 0 min 0 W/m 8,4 km/h (2 Bft) 97,14 %
22.11.2015 16:58 1,8 C 0,6 C 0,0 C 90 % 15 lf 1010,3 hPa 0,0 l/m 0 min 0 min 0 W/m 8,4 km/h (2 Bft) 100,00 %
22.11.2015 17:00 1,7 C 0,6 C 0,0 C 90 % 15 lf 1010,3 hPa 0,0 l/m 0 min 0 min 0 W/m 6,3 km/h (2 Bft) 100,00 %
22.11.2015 17:02 1,7 C 0,6 C 0,0 C 90 % 15 lf 1010,2 hPa 0,0 l/m 0 min 0 min 0 W/m 8,4 km/h (2 Bft) 100,00 %
22.11.2015 17:04 1,7 C 0,6 C 0,0 C 90 % 15 lf 1010,3 hPa 0,0 l/m 0 min 0 min 1 W/m 10,5 km/h (2 Bft) 100,00 %
22.11.2015 17:06 1,6 C 0,6 C 0,0 C 90 % 15 lf 1010,3 hPa 0,0 l/m 0 min 0 min 5 W/m 10,5 km/h (2 Bft) 94,83 %
22.11.2015 17:08 1,6 C 0,6 C 0,0 C 90 % 15 lf 1010,3 hPa 0,0 l/m 0 min 0 min 2 W/m 6,3 km/h (2 Bft) 100,00 %
22.11.2015 17:10 1,6 C 0,6 C -0,6 C 90 % 15 lf 1010,3 hPa 0,0 l/m 0 min 0 min 0 W/m 6,3 km/h (2 Bft) 95,74 %
22.11.2015 17:12 1,5 C 0,0 C -0,6 C 90 % 15 lf 1010,3 hPa 0,0 l/m 0 min 0 min 0 W/m 8,4 km/h (2 Bft) 97,87 %
22.11.2015 17:14 1,5 C 0,0 C -0,6 C 91 % 15 lf 1010,3 hPa 0,0 l/m 0 min 0 min 0 W/m 8,4 km/h (2 Bft) 97,83 %
22.11.2015 17:16 1,4 C 0,0 C -0,6 C 91 % 15 lf 1010,3 hPa 0,0 l/m 0 min 0 min 0 W/m 8,4 km/h (2 Bft) 97,87 %
22.11.2015 17:18 1,4 C 0,0 C -0,6 C 91 % 15 lf 1010,3 hPa 0,0 l/m 0 min 0 min 0 W/m 8,4 km/h (2 Bft) 95,74 %
22.11.2015 17:20 1,4 C 0,0 C -0,6 C 91 % 15 lf 1010,3 hPa 0,0 l/m 0 min 0 min 0 W/m 8,4 km/h (2 Bft) 97,87 %
22.11.2015 17:22 1,3 C 0,0 C -0,6 C 91 % 15 lf 1010,3 hPa 0,0 l/m 0 min 0 min 1 W/m 10,5 km/h (2 Bft) 95,74 %
22.11.2015 17:24 1,3 C 0,0 C -0,6 C 91 % 15 lf 1010,3 hPa 0,0 l/m 0 min 0 min 3 W/m 10,5 km/h (2 Bft) 97,87 %
22.11.2015 17:26 1,3 C 0,0 C -0,6 C 91 % 15 lf 1010,3 hPa 0,0 l/m 0 min 0 min 2 W/m 8,4 km/h (2 Bft) 97,83 %
22.11.2015 17:28 1,2 C 0,0 C -0,6 C 91 % 15 lf 1010,3 hPa 0,0 l/m 0 min 0 min 0 W/m 10,5 km/h (2 Bft) 95,74 %
22.11.2015 17:30 1,2 C 0,0 C -0,6 C 91 % 15 lf 1010,4 hPa 0,0 l/m 0 min 0 min 0 W/m 10,5 km/h (2 Bft) 97,87 %
22.11.2015 17:32 1,2 C 0,0 C -0,6 C 91 % 15 lf 1010,4 hPa 0,0 l/m 0 min 0 min 0 W/m 12,6 km/h (3 Bft) 94,29 %
22.11.2015 17:34 1,1 C 0,0 C -0,6 C 91 % 15 lf 1010,4 hPa 0,0 l/m 0 min 0 min 0 W/m 12,6 km/h (3 Bft) 97,87 %
22.11.2015 17:36 1,1 C 0,0 C -0,6 C 91 % 15 lf 1010,4 hPa 0,0 l/m 0 min 0 min 0 W/m 12,6 km/h (3 Bft) 97,87 %
22.11.2015 17:38 1,1 C 0,0 C -0,6 C 91 % 15 lf 1010,4 hPa 0,0 l/m 0 min 0 min 0 W/m 8,4 km/h (2 Bft) 95,74 %
22.11.2015 17:40 1,1 C 0,0 C -0,6 C 92 % 15 lf 1010,4 hPa 0,0 l/m 0 min 0 min 0 W/m 10,5 km/h (2 Bft) 97,83 %
22.11.2015 17:42 1,1 C 0,0 C -0,6 C 92 % 15 lf 1010,4 hPa 0,0 l/m 0 min 0 min 0 W/m 8,4 km/h (2 Bft) 91,49 %
22.11.2015 17:44 1,0 C 0,0 C -0,6 C 92 % 15 lf 1010,4 hPa 0,0 l/m 0 min 0 min 0 W/m 6,3 km/h (2 Bft) 95,74 %
22.11.2015 17:46 1,0 C 0,0 C -0,6 C 92 % 15 lf 1010,5 hPa 0,0 l/m 0 min 0 min 0 W/m 6,3 km/h (2 Bft) 95,74 %
22.11.2015 17:48 0,9 C 0,0 C -0,6 C 92 % 15 lf 1010,4 hPa 0,0 l/m 0 min 0 min 2 W/m 6,3 km/h (2 Bft) 93,62 %
22.11.2015 17:50 0,9 C 0,0 C -0,6 C 92 % 15 lf 1010,5 hPa 0,0 l/m 0 min 0 min 5 W/m 10,5 km/h (2 Bft) 93,62 %
22.11.2015 17:52 0,9 C 0,0 C -0,6 C 92 % 15 lf 1010,6 hPa 0,0 l/m 0 min 0 min 9 W/m 10,5 km/h (2 Bft) 95,65 %
22.11.2015 17:54 0,9 C 0,0 C -0,6 C 92 % 15 lf 1010,6 hPa 0,0 l/m 0 min 0 min 9 W/m 8,4 km/h (2 Bft) 97,87 %
22.11.2015 17:56 0,9 C 0,0 C -0,6 C 92 % 15 lf 1010,6 hPa 0,0 l/m 0 min 0 min 9 W/m 10,5 km/h (2 Bft) 97,87 %
22.11.2015 17:58 0,9 C 0,0 C -0,6 C 92 % 15 lf 1010,6 hPa 0,0 l/m 0 min 0 min 9 W/m 14,6 km/h (3 Bft) 93,62 %
22.11.2015 18:00 0,9 C 0,0 C -0,6 C 92 % 15 lf 1010,5 hPa 0,0 l/m 0 min 0 min 9 W/m 14,6 km/h (3 Bft) 95,74 %
22.11.2015 18:02 0,9 C 0,0 C 0,0 C 92 % 15 lf 1010,5 hPa 0,0 l/m 0 min 0 min 9 W/m 12,6 km/h (3 Bft) 94,23 %
22.11.2015 18:04 0,9 C 0,6 C 0,0 C 93 % 15 lf 1010,5 hPa 0,0 l/m 0 min 0 min 9 W/m 14,6 km/h (3 Bft) 93,75 %
22.11.2015 18:06 0,9 C 0,6 C 0,0 C 93 % 15 lf 1010,5 hPa 0,0 l/m 0 min 0 min 9 W/m 14,6 km/h (3 Bft) 93,62 %
22.11.2015 18:08 1,0 C 0,6 C 0,0 C 93 % 15 lf 1010,6 hPa 0,0 l/m 0 min 0 min 9 W/m 16,7 km/h (3 Bft) 93,62 %
22.11.2015 18:10 1,1 C 0,6 C 0,0 C 93 % 15 lf 1010,6 hPa 0,0 l/m 0 min 0 min 9 W/m 14,6 km/h (3 Bft) 93,62 %
22.11.2015 18:12 1,1 C 0,6 C 0,0 C 93 % 15 lf 1010,6 hPa 0,0 l/m 0 min 0 min 9 W/m 16,7 km/h (3 Bft) 97,87 %
22.11.2015 18:14 1,1 C 0,6 C 0,0 C 93 % 15 lf 1010,6 hPa 0,0 l/m 0 min 0 min 9 W/m 16,7 km/h (3 Bft) 93,48 %
22.11.2015 18:16 1,2 C 0,6 C 0,0 C 93 % 15 lf 1010,6 hPa 0,0 l/m 0 min 0 min 9 W/m 18,8 km/h (3 Bft) 95,74 %
22.11.2015 18:18 1,2 C 0,6 C 0,0 C 93 % 15 lf 1010,7 hPa 0,0 l/m 0 min 0 min 9 W/m 16,7 km/h (3 Bft) 93,62 %
22.11.2015 18:20 1,2 C 0,6 C 0,0 C 93 % 15 lf 1010,7 hPa 0,0 l/m 0 min 0 min 9 W/m 12,6 km/h (3 Bft) 91,49 %
22.11.2015 18:22 1,2 C 0,6 C 0,0 C 94 % 15 lf 1010,7 hPa 0,0 l/m 0 min 0 min 9 W/m 12,6 km/h (3 Bft) 93,75 %
22.11.2015 18:24 1,2 C 0,6 C 0,0 C 94 % 15 lf 1010,7 hPa 0,0 l/m 0 min 0 min 9 W/m 12,6 km/h (3 Bft) 91,49 %
22.11.2015 18:26 1,2 C 0,6 C 0,0 C 94 % 15 lf 1010,8 hPa 0,0 l/m 0 min 0 min 9 W/m 12,6 km/h (3 Bft) 91,30 %
22.11.2015 18:28 1,2 C 0,6 C 0,0 C 94 % 15 lf 1010,9 hPa 0,0 l/m 0 min 0 min 9 W/m 10,5 km/h (2 Bft) 97,22 %
22.11.2015 18:30 1,2 C 0,6 C 0,0 C 94 % 15 lf 1010,9 hPa 0,0 l/m 0 min 0 min 9 W/m 14,6 km/h (3 Bft) 90,16 %
22.11.2015 18:32 1,2 C 0,6 C 0,0 C 94 % 15 lf 1011,0 hPa 0,0 l/m 0 min 0 min 9 W/m 14,6 km/h (3 Bft) 97,22 %
22.11.2015 18:34 1,2 C 0,6 C 0,0 C 94 % 15 lf 1011,0 hPa 0,0 l/m 0 min 0 min 9 W/m 12,6 km/h (3 Bft) 93,62 %
22.11.2015 18:36 1,2 C 0,6 C 0,0 C 94 % 15 lf 1011,1 hPa 0,0 l/m 0 min 0 min 9 W/m 14,6 km/h (3 Bft) 88,89 %
22.11.2015 18:38 1,2 C 0,6 C 0,0 C 94 % 15 lf 1011,1 hPa 0,0 l/m 0 min 0 min 9 W/m 14,6 km/h (3 Bft) 89,13 %
22.11.2015 18:40 1,2 C 0,6 C 0,0 C 94 % 15 lf 1011,1 hPa 0,0 l/m 0 min 0 min 9 W/m 20,9 km/h (4 Bft) 93,62 %
22.11.2015 18:42 1,2 C 0,6 C 0,0 C 94 % 15 lf 1011,2 hPa 0,0 l/m 0 min 0 min 9 W/m 14,6 km/h (3 Bft) 93,62 %
22.11.2015 18:44 1,2 C 0,6 C 0,0 C 94 % 15 lf 1011,2 hPa 0,0 l/m 0 min 0 min 9 W/m 16,7 km/h (3 Bft) 95,74 %
22.11.2015 18:46 1,2 C 0,6 C 0,0 C 94 % 15 lf 1011,3 hPa 0,0 l/m 0 min 0 min 9 W/m 20,9 km/h (4 Bft) 95,74 %
22.11.2015 18:48 1,3 C 0,6 C 0,0 C 94 % 15 lf 1011,3 hPa 0,0 l/m 0 min 0 min 9 W/m 14,6 km/h (3 Bft) 93,62 %
22.11.2015 18:50 1,3 C 0,6 C 0,0 C 94 % 15 lf 1011,2 hPa 0,0 l/m 0 min 0 min 9 W/m 16,7 km/h (3 Bft) 93,48 %
22.11.2015 18:52 1,3 C 0,6 C 0,0 C 94 % 15 lf 1011,3 hPa 0,0 l/m 0 min 0 min 9 W/m 16,7 km/h (3 Bft) 97,87 %
22.11.2015 18:54 1,3 C 0,6 C 0,0 C 94 % 15 lf 1011,3 hPa 0,0 l/m 0 min 0 min 9 W/m 14,6 km/h (3 Bft) 93,62 %
22.11.2015 18:56 1,3 C 0,6 C 0,0 C 94 % 15 lf 1011,3 hPa 0,0 l/m 0 min 0 min 9 W/m 14,6 km/h (3 Bft) 93,62 %
22.11.2015 18:58 1,3 C 0,6 C 0,0 C 94 % 15 lf 1011,3 hPa 0,0 l/m 0 min 0 min 9 W/m 14,6 km/h (3 Bft) 97,87 %
22.11.2015 19:00 1,3 C 0,6 C 0,0 C 94 % 15 lf 1011,3 hPa 0,0 l/m 0 min 0 min 9 W/m 16,7 km/h (3 Bft) 97,87 %
22.11.2015 19:02 1,3 C 0,6 C 0,0 C 94 % 15 lf 1011,4 hPa 0,0 l/m 0 min 0 min 9 W/m 12,6 km/h (3 Bft) 95,74 %
22.11.2015 19:04 1,3 C 0,6 C 0,0 C 94 % 15 lf 1011,3 hPa 0,0 l/m 0 min 0 min 9 W/m 18,8 km/h (3 Bft) 97,87 %
22.11.2015 19:06 1,3 C 0,6 C 0,0 C 94 % 15 lf 1011,4 hPa 0,0 l/m 0 min 0 min 9 W/m 18,8 km/h (3 Bft) 95,74 %
22.11.2015 19:08 1,3 C 0,6 C 0,0 C 94 % 15 lf 1011,4 hPa 0,0 l/m 0 min 0 min 9 W/m 16,7 km/h (3 Bft) 97,87 %
22.11.2015 19:10 1,3 C 0,6 C 0,0 C 94 % 15 lf 1011,3 hPa 0,0 l/m 0 min 0 min 9 W/m 18,8 km/h (3 Bft) 93,62 %
22.11.2015 19:12 1,3 C 0,6 C 0,0 C 94 % 15 lf 1011,4 hPa 0,0 l/m 0 min 0 min 9 W/m 20,9 km/h (4 Bft) 97,83 %
22.11.2015 19:14 1,3 C 0,6 C 0,0 C 94 % 15 lf 1011,5 hPa 0,0 l/m 0 min 0 min 9 W/m 14,6 km/h (3 Bft) 93,62 %
22.11.2015 19:16 1,3 C 0,6 C 0,0 C 94 % 15 lf 1011,5 hPa 0,0 l/m 0 min 0 min 9 W/m 18,8 km/h (3 Bft) 97,87 %
22.11.2015 19:18 1,3 C 0,6 C 0,0 C 94 % 15 lf 1011,5 hPa 0,0 l/m 0 min 0 min 9 W/m 16,7 km/h (3 Bft) 93,62 %
22.11.2015 19:20 1,3 C 0,6 C 0,0 C 95 % 15 lf 1011,5 hPa 0,0 l/m 0 min 0 min 9 W/m 12,6 km/h (3 Bft) 97,87 %
22.11.2015 19:22 1,3 C 0,6 C 0,0 C 95 % 15 lf 1011,5 hPa 0,0 l/m 0 min 0 min 9 W/m 16,7 km/h (3 Bft) 97,87 %
22.11.2015 19:24 1,3 C 0,6 C 0,0 C 95 % 15 lf 1011,6 hPa 0,0 l/m 0 min 0 min 9 W/m 12,6 km/h (3 Bft) 97,83 %
22.11.2015 19:26 1,3 C 0,6 C 0,0 C 95 % 15 lf 1011,7 hPa 0,0 l/m 0 min 0 min 9 W/m 14,6 km/h (3 Bft) 97,87 %
22.11.2015 19:28 1,3 C 0,6 C 0,0 C 95 % 15 lf 1011,7 hPa 0,0 l/m 0 min 0 min 9 W/m 10,5 km/h (2 Bft) 93,62 %
22.11.2015 19:30 1,3 C 0,6 C 0,0 C 95 % 15 lf 1011,7 hPa 0,0 l/m 0 min 0 min 9 W/m 10,5 km/h (2 Bft) 95,74 %
22.11.2015 19:32 1,3 C 0,6 C 0,0 C 95 % 15 lf 1011,8 hPa 0,0 l/m 0 min 0 min 9 W/m 16,7 km/h (3 Bft) 95,83 %
22.11.2015 19:34 1,3 C 0,6 C 0,0 C 95 % 15 lf 1011,8 hPa 0,0 l/m 0 min 0 min 9 W/m 14,6 km/h (3 Bft) 95,74 %
22.11.2015 19:36 1,3 C 0,6 C 0,0 C 95 % 15 lf 1011,9 hPa 0,0 l/m 0 min 0 min 9 W/m 14,6 km/h (3 Bft) 100,00 %
22.11.2015 19:38 1,3 C 0,6 C 0,0 C 95 % 15 lf 1011,9 hPa 0,0 l/m 0 min 0 min 9 W/m 12,6 km/h (3 Bft) 97,14 %
22.11.2015 19:40 1,3 C 0,6 C 0,0 C 95 % 15 lf 1011,9 hPa 0,0 l/m 0 min 0 min 9 W/m 16,7 km/h (3 Bft) 100,00 %
22.11.2015 19:42 1,3 C 0,6 C 0,0 C 95 % 15 lf 1011,9 hPa 0,0 l/m 0 min 0 min 9 W/m 10,5 km/h (2 Bft) 97,87 %
22.11.2015 19:44 1,3 C 0,6 C 0,0 C 95 % 15 lf 1011,9 hPa 0,0 l/m 0 min 0 min 9 W/m 10,5 km/h (2 Bft) 100,00 %
22.11.2015 19:46 1,3 C 0,6 C 0,0 C 95 % 15 lf 1012,0 hPa 0,0 l/m 0 min 0 min 9 W/m 18,8 km/h (3 Bft) 100,00 %
22.11.2015 19:48 1,3 C 0,6 C 0,0 C 95 % 15 lf 1012,1 hPa 0,0 l/m 0 min 0 min 9 W/m 20,9 km/h (4 Bft) 97,83 %
22.11.2015 19:50 1,3 C 0,6 C 0,0 C 95 % 15 lf 1012,1 hPa 0,0 l/m 0 min 0 min 9 W/m 14,6 km/h (3 Bft) 95,74 %
22.11.2015 19:52 1,3 C 0,6 C 0,0 C 95 % 15 lf 1012,1 hPa 0,0 l/m 0 min 0 min 9 W/m 14,6 km/h (3 Bft) 97,87 %
22.11.2015 19:54 1,3 C 0,6 C 0,0 C 95 % 15 lf 1012,0 hPa 0,0 l/m 0 min 0 min 9 W/m 10,5 km/h (2 Bft) 100,00 %
22.11.2015 19:56 1,3 C 0,6 C 0,0 C 95 % 15 lf 1012,0 hPa 0,0 l/m 0 min 0 min 9 W/m 25,1 km/h (4 Bft) 97,87 %
22.11.2015 19:58 1,2 C 0,6 C 0,0 C 95 % 15 lf 1012,0 hPa 0,0 l/m 0 min 0 min 9 W/m 20,9 km/h (4 Bft) 97,87 %
22.11.2015 20:00 1,2 C 0,6 C 0,0 C 95 % 15 lf 1012,0 hPa 0,0 l/m 0 min 0 min 9 W/m 18,8 km/h (3 Bft) 100,00 %
22.11.2015 20:02 1,2 C 0,6 C 0,0 C 95 % 15 lf 1012,0 hPa 0,0 l/m 0 min 0 min 9 W/m 14,6 km/h (3 Bft) 97,87 %
22.11.2015 20:04 1,2 C 0,6 C 0,0 C 95 % 15 lf 1012,1 hPa 0,0 l/m 0 min 0 min 9 W/m 14,6 km/h (3 Bft) 100,00 %
22.11.2015 20:06 1,2 C 0,6 C -0,6 C 95 % 15 lf 1012,2 hPa 0,0 l/m 0 min 0 min 9 W/m 16,7 km/h (3 Bft) 97,87 %
22.11.2015 20:08 1,2 C 0,6 C -0,6 C 95 % 15 lf 1012,2 hPa 0,0 l/m 0 min 0 min 9 W/m 14,6 km/h (3 Bft) 95,74 %
22.11.2015 20:10 1,2 C 0,6 C -0,6 C 95 % 15 lf 1012,3 hPa 0,0 l/m 0 min 0 min 9 W/m 12,6 km/h (3 Bft) 95,74 %
22.11.2015 20:12 1,2 C 0,6 C -0,6 C 95 % 15 lf 1012,2 hPa 0,0 l/m 0 min 0 min 9 W/m 14,6 km/h (3 Bft) 93,48 %
22.11.2015 20:14 1,1 C 0,6 C -0,6 C 95 % 15 lf 1012,3 hPa 0,0 l/m 0 min 0 min 9 W/m 14,6 km/h (3 Bft) 95,74 %
22.11.2015 20:16 1,1 C 0,0 C -0,6 C 95 % 15 lf 1012,4 hPa 0,0 l/m 0 min 0 min 9 W/m 20,9 km/h (4 Bft) 95,74 %
22.11.2015 20:18 1,1 C 0,6 C -0,6 C 95 % 15 lf 1012,4 hPa 0,0 l/m 0 min 0 min 9 W/m 8,4 km/h (2 Bft) 93,62 %
22.11.2015 20:20 1,1 C 0,6 C -0,6 C 95 % 15 lf 1012,5 hPa 0,0 l/m 0 min 0 min 9 W/m 12,6 km/h (3 Bft) 91,49 %
22.11.2015 20:22 1,1 C 0,6 C -0,6 C 95 % 15 lf 1012,5 hPa 0,0 l/m 0 min 0 min 9 W/m 10,5 km/h (2 Bft) 95,74 %
22.11.2015 20:24 1,1 C 0,6 C -0,6 C 95 % 15 lf 1012,4 hPa 0,0 l/m 0 min 0 min 9 W/m 8,4 km/h (2 Bft) 95,65 %
22.11.2015 20:26 1,0 C 0,0 C -0,6 C 95 % 15 lf 1012,5 hPa 0,0 l/m 0 min 0 min 9 W/m 12,6 km/h (3 Bft) 89,36 %
22.11.2015 20:28 1,0 C 0,0 C -0,6 C 95 % 15 lf 1012,5 hPa 0,0 l/m 0 min 0 min 9 W/m 10,5 km/h (2 Bft) 95,74 %
22.11.2015 20:30 1,0 C 0,0 C -0,6 C 95 % 15 lf 1012,5 hPa 0,0 l/m 0 min 0 min 9 W/m 8,4 km/h (2 Bft) 93,62 %
22.11.2015 20:32 0,9 C 0,0 C -0,6 C 95 % 15 lf 1012,5 hPa 0,0 l/m 0 min 0 min 9 W/m 10,5 km/h (2 Bft) 93,62 %
22.11.2015 20:34 0,9 C 0,0 C -0,6 C 95 % 15 lf 1012,6 hPa 0,0 l/m 0 min 0 min 9 W/m 10,5 km/h (2 Bft) 93,48 %
22.11.2015 20:36 0,9 C 0,0 C -0,6 C 95 % 15 lf 1012,6 hPa 0,0 l/m 0 min 0 min 9 W/m 10,5 km/h (2 Bft) 92,73 %
22.11.2015 20:38 0,9 C 0,0 C -0,6 C 95 % 15 lf 1012,6 hPa 0,0 l/m 0 min 0 min 9 W/m 10,5 km/h (2 Bft) 95,74 %
22.11.2015 20:40 0,9 C 0,0 C -0,6 C 95 % 15 lf 1012,7 hPa 0,0 l/m 0 min 0 min 9 W/m 14,6 km/h (3 Bft) 93,62 %
22.11.2015 20:42 0,9 C 0,0 C -0,6 C 95 % 15 lf 1012,7 hPa 0,0 l/m 0 min 0 min 9 W/m 8,4 km/h (2 Bft) 93,75 %
22.11.2015 20:44 0,9 C 0,0 C -0,6 C 95 % 15 lf 1012,7 hPa 0,0 l/m 0 min 0 min 9 W/m 10,5 km/h (2 Bft) 95,74 %
22.11.2015 20:46 0,8 C 0,0 C -0,6 C 95 % 15 lf 1012,7 hPa 0,0 l/m 0 min 0 min 9 W/m 6,3 km/h (2 Bft) 91,30 %
22.11.2015 20:48 0,8 C 0,0 C -0,6 C 95 % 15 lf 1012,8 hPa 0,0 l/m 0 min 0 min 9 W/m 6,3 km/h (2 Bft) 91,49 %
22.11.2015 20:50 0,8 C 0,0 C -0,6 C 95 % 15 lf 1012,8 hPa 0,0 l/m 0 min 0 min 9 W/m 10,5 km/h (2 Bft) 97,87 %
22.11.2015 20:52 0,8 C 0,0 C -0,6 C 95 % 15 lf 1012,8 hPa 0,0 l/m 0 min 0 min 9 W/m 10,5 km/h (2 Bft) 93,62 %
22.11.2015 20:54 0,8 C -0,6 C -0,6 C 95 % 15 lf 1012,8 hPa 0,0 l/m 0 min 0 min 9 W/m 8,4 km/h (2 Bft) 95,74 %
22.11.2015 20:56 0,7 C -0,6 C -1,1 C 95 % 15 lf 1012,8 hPa 0,0 l/m 0 min 0 min 9 W/m 8,4 km/h (2 Bft) 93,48 %
22.11.2015 20:58 0,7 C 0,0 C -1,1 C 95 % 15 lf 1012,8 hPa 0,0 l/m 0 min 0 min 9 W/m 8,4 km/h (2 Bft) 93,62 %
22.11.2015 21:00 0,7 C 0,0 C -0,6 C 95 % 15 lf 1013,0 hPa 0,0 l/m 0 min 0 min 9 W/m 12,6 km/h (3 Bft) 93,62 %
22.11.2015 21:02 0,7 C 0,0 C -0,6 C 95 % 15 lf 1013,0 hPa 0,0 l/m 0 min 0 min 9 W/m 12,6 km/h (3 Bft) 97,92 %
22.11.2015 21:04 0,6 C 0,0 C -0,6 C 95 % 15 lf 1013,0 hPa 0,0 l/m 0 min 0 min 9 W/m 14,6 km/h (3 Bft) 97,87 %
22.11.2015 21:06 0,6 C 0,0 C -0,6 C 95 % 15 lf 1013,0 hPa 0,0 l/m 0 min 0 min 9 W/m 10,5 km/h (2 Bft) 93,62 %
22.11.2015 21:08 0,6 C 0,0 C -0,6 C 95 % 15 lf 1013,0 hPa 0,0 l/m 0 min 0 min 9 W/m 14,6 km/h (3 Bft) 97,83 %
22.11.2015 21:10 0,6 C 0,0 C -0,6 C 95 % 15 lf 1013,0 hPa 0,0 l/m 0 min 0 min 9 W/m 10,5 km/h (2 Bft) 93,62 %
22.11.2015 21:12 0,6 C 0,0 C -0,6 C 95 % 15 lf 1013,0 hPa 0,0 l/m 0 min 0 min 9 W/m 12,6 km/h (3 Bft) 95,74 %
22.11.2015 21:14 0,5 C 0,0 C -0,6 C 95 % 15 lf 1013,0 hPa 0,0 l/m 0 min 0 min 9 W/m 12,6 km/h (3 Bft) 93,62 %
22.11.2015 21:16 0,5 C 0,0 C -0,6 C 95 % 15 lf 1013,1 hPa 0,0 l/m 0 min 0 min 9 W/m 8,4 km/h (2 Bft) 93,62 %
22.11.2015 21:18 0,5 C 0,0 C -0,6 C 95 % 15 lf 1013,1 hPa 0,0 l/m 0 min 0 min 9 W/m 12,6 km/h (3 Bft) 100,00 %
22.11.2015 21:20 0,5 C 0,0 C -0,6 C 95 % 15 lf 1013,2 hPa 0,0 l/m 0 min 0 min 9 W/m 10,5 km/h (2 Bft) 97,83 %
22.11.2015 21:22 0,5 C 0,0 C -0,6 C 95 % 15 lf 1013,2 hPa 0,0 l/m 0 min 0 min 9 W/m 12,6 km/h (3 Bft) 95,74 %
22.11.2015 21:24 0,5 C 0,6 C -0,6 C 95 % 15 lf 1013,2 hPa 0,0 l/m 0 min 0 min 9 W/m 14,6 km/h (3 Bft) 100,00 %
22.11.2015 21:26 0,5 C 0,6 C -0,6 C 95 % 15 lf 1013,3 hPa 0,0 l/m 0 min 0 min 9 W/m 8,4 km/h (2 Bft) 93,62 %
22.11.2015 21:28 0,5 C 0,6 C -0,6 C 95 % 15 lf 1013,4 hPa 0,0 l/m 0 min 0 min 9 W/m 8,4 km/h (2 Bft) 100,00 %
22.11.2015 21:30 0,5 C 0,6 C 0,0 C 95 % 15 lf 1013,4 hPa 0,0 l/m 0 min 0 min 9 W/m 12,6 km/h (3 Bft) 100,00 %
22.11.2015 21:32 0,5 C 0,6 C 0,0 C 95 % 15 lf 1013,5 hPa 0,0 l/m 0 min 0 min 9 W/m 10,5 km/h (2 Bft) 100,00 %
22.11.2015 21:34 0,6 C 0,6 C 0,0 C 95 % 15 lf 1013,4 hPa 0,0 l/m 0 min 0 min 9 W/m 16,7 km/h (3 Bft) 97,83 %
22.11.2015 21:36 0,6 C 0,6 C 0,0 C 95 % 15 lf 1013,4 hPa 0,0 l/m 0 min 0 min 9 W/m 8,4 km/h (2 Bft) 100,00 %
22.11.2015 21:38 0,6 C 0,6 C 0,0 C 95 % 15 lf 1013,4 hPa 0,0 l/m 0 min 0 min 9 W/m 14,6 km/h (3 Bft) 100,00 %
22.11.2015 21:40 0,6 C 0,6 C 0,0 C 95 % 15 lf 1013,4 hPa 0,0 l/m 0 min 0 min 9 W/m 8,4 km/h (2 Bft) 100,00 %
22.11.2015 21:42 0,7 C 0,6 C 0,0 C 95 % 15 lf 1013,4 hPa 0,0 l/m 0 min 0 min 9 W/m 12,6 km/h (3 Bft) 97,87 %
22.11.2015 21:44 0,7 C 0,6 C 0,0 C 95 % 15 lf 1013,4 hPa 0,0 l/m 0 min 0 min 9 W/m 12,6 km/h (3 Bft) 95,65 %
22.11.2015 21:46 0,7 C 0,6 C 0,0 C 95 % 15 lf 1013,4 hPa 0,0 l/m 0 min 0 min 9 W/m 16,7 km/h (3 Bft) 97,87 %
22.11.2015 21:48 0,7 C 0,6 C 0,0 C 95 % 15 lf 1013,3 hPa 0,0 l/m 0 min 0 min 9 W/m 12,6 km/h (3 Bft) 100,00 %
22.11.2015 21:50 0,7 C 0,6 C 0,0 C 96 % 15 lf 1013,4 hPa 0,0 l/m 0 min 0 min 9 W/m 12,6 km/h (3 Bft) 98,31 %
22.11.2015 21:52 0,8 C 0,6 C 0,0 C 96 % 15 lf 1013,4 hPa 0,0 l/m 0 min 0 min 9 W/m 12,6 km/h (3 Bft) 93,62 %
22.11.2015 21:54 0,8 C 0,6 C 0,0 C 96 % 15 lf 1013,4 hPa 0,0 l/m 0 min 0 min 9 W/m 16,7 km/h (3 Bft) 100,00 %
22.11.2015 21:56 0,8 C 0,6 C 0,0 C 96 % 15 lf 1013,4 hPa 0,0 l/m 0 min 0 min 9 W/m 14,6 km/h (3 Bft) 95,65 %
22.11.2015 21:58 0,8 C 0,6 C 0,0 C 96 % 15 lf 1013,3 hPa 0,0 l/m 0 min 0 min 9 W/m 14,6 km/h (3 Bft) 97,87 %
22.11.2015 22:00 0,8 C 0,6 C 0,0 C 96 % 15 lf 1013,4 hPa 0,0 l/m 0 min 0 min 9 W/m 16,7 km/h (3 Bft) 97,87 %
22.11.2015 22:02 0,8 C 0,6 C 0,0 C 96 % 15 lf 1013,3 hPa 0,0 l/m 0 min 0 min 9 W/m 12,6 km/h (3 Bft) 95,74 %
22.11.2015 22:04 0,8 C 0,6 C 0,0 C 96 % 15 lf 1013,3 hPa 0,0 l/m 0 min 0 min 9 W/m 12,6 km/h (3 Bft) 97,87 %
22.11.2015 22:06 0,8 C 0,6 C 0,0 C 96 % 15 lf 1013,3 hPa 0,0 l/m 0 min 0 min 9 W/m 14,6 km/h (3 Bft) 97,87 %
22.11.2015 22:08 0,8 C 0,6 C 0,0 C 96 % 15 lf 1013,4 hPa 0,0 l/m 0 min 0 min 9 W/m 12,6 km/h (3 Bft) 97,83 %
22.11.2015 22:10 0,8 C 0,6 C 0,0 C 96 % 15 lf 1013,4 hPa 0,0 l/m 0 min 0 min 9 W/m 16,7 km/h (3 Bft) 97,87 %
22.11.2015 22:12 0,8 C 0,6 C 0,0 C 96 % 15 lf 1013,4 hPa 0,0 l/m 0 min 0 min 9 W/m 14,6 km/h (3 Bft) 97,87 %
22.11.2015 22:14 0,8 C 0,6 C 0,0 C 96 % 15 lf 1013,5 hPa 0,0 l/m 0 min 0 min 9 W/m 16,7 km/h (3 Bft) 97,87 %
22.11.2015 22:16 0,8 C 0,6 C 0,0 C 96 % 15 lf 1013,5 hPa 0,0 l/m 0 min 0 min 9 W/m 12,6 km/h (3 Bft) 100,00 %
22.11.2015 22:18 0,9 C 0,6 C 0,0 C 96 % 15 lf 1013,5 hPa 0,0 l/m 0 min 0 min 9 W/m 18,8 km/h (3 Bft) 95,74 %
22.11.2015 22:20 0,9 C 1,1 C 0,0 C 96 % 15 lf 1013,5 hPa 0,0 l/m 0 min 0 min 9 W/m 16,7 km/h (3 Bft) 97,83 %
22.11.2015 22:22 0,9 C 1,1 C 0,0 C 96 % 15 lf 1013,5 hPa 0,0 l/m 0 min 0 min 9 W/m 18,8 km/h (3 Bft) 97,87 %
22.11.2015 22:24 0,9 C 1,1 C 0,0 C 96 % 15 lf 1013,6 hPa 0,0 l/m 0 min 0 min 9 W/m 20,9 km/h (4 Bft) 97,87 %
22.11.2015 22:26 0,9 C 1,1 C 0,0 C 96 % 15 lf 1013,7 hPa 0,0 l/m 0 min 0 min 9 W/m 16,7 km/h (3 Bft) 97,87 %
22.11.2015 22:28 0,9 C 1,1 C 0,0 C 96 % 15 lf 1013,7 hPa 0,0 l/m 0 min 0 min 9 W/m 16,7 km/h (3 Bft) 100,00 %
22.11.2015 22:30 0,9 C 1,1 C 0,0 C 96 % 15 lf 1013,7 hPa 0,0 l/m 0 min 0 min 9 W/m 14,6 km/h (3 Bft) 100,00 %
22.11.2015 22:32 0,9 C 1,1 C 0,0 C 96 % 15 lf 1013,6 hPa 0,0 l/m 0 min 0 min 9 W/m 18,8 km/h (3 Bft) 100,00 %
22.11.2015 22:34 1,0 C 1,1 C 0,0 C 96 % 15 lf 1013,7 hPa 0,0 l/m 0 min 0 min 9 W/m 16,7 km/h (3 Bft) 97,87 %
22.11.2015 22:36 1,0 C 1,1 C 0,0 C 96 % 15 lf 1013,7 hPa 0,0 l/m 0 min 0 min 9 W/m 12,6 km/h (3 Bft) 96,00 %
22.11.2015 22:38 1,0 C 1,1 C 0,0 C 96 % 15 lf 1013,7 hPa 0,0 l/m 0 min 0 min 9 W/m 16,7 km/h (3 Bft) 97,87 %
22.11.2015 22:40 1,0 C 1,1 C 0,0 C 96 % 15 lf 1013,7 hPa 0,0 l/m 0 min 0 min 9 W/m 14,6 km/h (3 Bft) 100,00 %
22.11.2015 22:42 1,1 C 1,1 C 0,0 C 96 % 15 lf 1013,7 hPa 0,0 l/m 0 min 0 min 9 W/m 18,8 km/h (3 Bft) 97,87 %
22.11.2015 22:44 1,1 C 1,1 C 0,0 C 96 % 15 lf 1013,7 hPa 0,0 l/m 0 min 0 min 9 W/m 16,7 km/h (3 Bft) 95,74 %
22.11.2015 22:46 1,1 C 1,1 C 0,6 C 96 % 15 lf 1013,8 hPa 0,0 l/m 0 min 0 min 9 W/m 25,1 km/h (4 Bft) 95,74 %
22.11.2015 22:48 1,1 C 1,1 C 0,6 C 96 % 15 lf 1013,8 hPa 0,0 l/m 0 min 0 min 9 W/m 20,9 km/h (4 Bft) 95,74 %
22.11.2015 22:50 1,1 C 1,1 C 0,6 C 96 % 15 lf 1013,9 hPa 0,0 l/m 0 min 0 min 9 W/m 25,1 km/h (4 Bft) 97,87 %
22.11.2015 22:52 1,2 C 1,1 C 0,6 C 96 % 15 lf 1013,9 hPa 0,0 l/m 0 min 0 min 9 W/m 18,8 km/h (3 Bft) 91,49 %
22.11.2015 22:54 1,2 C 1,1 C 0,6 C 96 % 15 lf 1013,9 hPa 0,0 l/m 0 min 0 min 9 W/m 18,8 km/h (3 Bft) 93,48 %
22.11.2015 22:56 1,2 C 1,1 C 0,6 C 96 % 15 lf 1013,9 hPa 0,0 l/m 0 min 0 min 9 W/m 18,8 km/h (3 Bft) 95,74 %
22.11.2015 22:58 1,2 C 1,1 C 0,6 C 96 % 15 lf 1013,9 hPa 0,0 l/m 0 min 0 min 9 W/m 16,7 km/h (3 Bft) 97,87 %
22.11.2015 23:00 1,2 C 1,1 C 0,6 C 96 % 15 lf 1013,9 hPa 0,0 l/m 0 min 0 min 9 W/m 20,9 km/h (4 Bft) 95,74 %
22.11.2015 23:02 1,2 C 1,1 C 0,6 C 96 % 15 lf 1013,9 hPa 0,0 l/m 0 min 0 min 9 W/m 14,6 km/h (3 Bft) 95,83 %
22.11.2015 23:04 1,2 C 1,1 C 0,6 C 96 % 15 lf 1014,0 hPa 0,0 l/m 0 min 0 min 9 W/m 12,6 km/h (3 Bft) 95,65 %
22.11.2015 23:06 1,2 C 1,1 C 0,6 C 96 % 15 lf 1014,0 hPa 0,0 l/m 0 min 0 min 9 W/m 18,8 km/h (3 Bft) 95,74 %
22.11.2015 23:08 1,2 C 1,1 C 0,6 C 96 % 15 lf 1014,0 hPa 0,0 l/m 0 min 0 min 9 W/m 18,8 km/h (3 Bft) 93,62 %
22.11.2015 23:10 1,2 C 1,1 C 0,6 C 96 % 15 lf 1014,0 hPa 0,0 l/m 0 min 0 min 9 W/m 18,8 km/h (3 Bft) 95,74 %
22.11.2015 23:12 1,3 C 1,1 C 0,6 C 96 % 15 lf 1014,0 hPa 0,0 l/m 0 min 0 min 9 W/m 16,7 km/h (3 Bft) 95,74 %
22.11.2015 23:14 1,3 C 1,1 C 0,6 C 96 % 15 lf 1014,1 hPa 0,0 l/m 0 min 0 min 9 W/m 27,2 km/h (4 Bft) 95,74 %
22.11.2015 23:16 1,3 C 1,1 C 0,6 C 96 % 15 lf 1014,1 hPa 0,0 l/m 0 min 0 min 9 W/m 23,0 km/h (4 Bft) 93,48 %
22.11.2015 23:18 1,3 C 1,1 C 0,6 C 96 % 15 lf 1014,1 hPa 0,0 l/m 0 min 0 min 9 W/m 20,9 km/h (4 Bft) 93,62 %
22.11.2015 23:20 1,3 C 1,1 C 0,6 C 96 % 15 lf 1014,1 hPa 0,0 l/m 0 min 0 min 9 W/m 20,9 km/h (4 Bft) 95,74 %
22.11.2015 23:22 1,3 C 1,1 C 0,6 C 96 % 15 lf 1014,1 hPa 0,0 l/m 0 min 0 min 9 W/m 20,9 km/h (4 Bft) 89,36 %
22.11.2015 23:24 1,3 C 1,1 C 0,6 C 96 % 15 lf 1014,1 hPa 0,0 l/m 0 min 0 min 9 W/m 20,9 km/h (4 Bft) 87,23 %
22.11.2015 23:26 1,3 C 1,1 C 0,6 C 96 % 15 lf 1014,2 hPa 0,0 l/m 0 min 0 min 9 W/m 16,7 km/h (3 Bft) 93,62 %
22.11.2015 23:28 1,4 C 1,1 C 0,6 C 96 % 15 lf 1014,2 hPa 0,0 l/m 0 min 0 min 9 W/m 12,6 km/h (3 Bft) 93,48 %
22.11.2015 23:30 1,4 C 1,1 C 0,6 C 96 % 15 lf 1014,3 hPa 0,0 l/m 0 min 0 min 9 W/m 14,6 km/h (3 Bft) 91,49 %
22.11.2015 23:32 1,4 C 1,1 C 0,6 C 96 % 15 lf 1014,3 hPa 0,0 l/m 0 min 0 min 9 W/m 18,8 km/h (3 Bft) 91,49 %
22.11.2015 23:34 1,4 C 1,1 C 0,6 C 96 % 15 lf 1014,3 hPa 0,0 l/m 0 min 0 min 9 W/m 8,4 km/h (2 Bft) 95,74 %
22.11.2015 23:36 1,4 C 1,1 C 0,6 C 96 % 15 lf 1014,3 hPa 0,0 l/m 0 min 0 min 9 W/m 14,6 km/h (3 Bft) 97,22 %
22.11.2015 23:38 1,4 C 1,1 C 0,6 C 96 % 15 lf 1014,3 hPa 0,0 l/m 0 min 0 min 9 W/m 18,8 km/h (3 Bft) 87,23 %
22.11.2015 23:40 1,4 C 1,1 C 0,6 C 96 % 15 lf 1014,5 hPa 0,0 l/m 0 min 0 min 9 W/m 16,7 km/h (3 Bft) 89,36 %
22.11.2015 23:42 1,4 C 1,1 C 0,6 C 96 % 15 lf 1014,6 hPa 0,0 l/m 0 min 0 min 9 W/m 16,7 km/h (3 Bft) 91,30 %
22.11.2015 23:44 1,4 C 1,7 C 0,6 C 96 % 15 lf 1014,7 hPa 0,0 l/m 0 min 0 min 9 W/m 18,8 km/h (3 Bft) 89,36 %
22.11.2015 23:46 1,4 C 1,1 C 0,6 C 96 % 15 lf 1014,6 hPa 0,0 l/m 0 min 0 min 9 W/m 14,6 km/h (3 Bft) 89,36 %
22.11.2015 23:48 1,4 C 1,7 C 0,6 C 96 % 15 lf 1014,6 hPa 0,0 l/m 0 min 0 min 9 W/m 16,7 km/h (3 Bft) 89,36 %
22.11.2015 23:50 1,4 C 1,7 C 0,6 C 96 % 15 lf 1014,6 hPa 0,0 l/m 0 min 0 min 9 W/m 18,8 km/h (3 Bft) 89,36 %
22.11.2015 23:52 1,4 C 1,7 C 0,6 C 96 % 15 lf 1014,7 hPa 0,0 l/m 0 min 0 min 9 W/m 18,8 km/h (3 Bft) 89,13 %
22.11.2015 23:54 1,4 C 1,7 C 0,6 C 96 % 15 lf 1014,7 hPa 0,0 l/m 0 min 0 min 9 W/m 20,9 km/h (4 Bft) 95,74 %
22.11.2015 23:56 1,4 C 1,7 C 0,6 C 96 % 15 lf 1014,6 hPa 0,0 l/m 0 min 0 min 9 W/m 18,8 km/h (3 Bft) 93,62 %
22.11.2015 23:58 1,4 C 1,7 C 0,6 C 96 % 15 lf 1014,7 hPa 0,0 l/m 0 min 0 min 9 W/m 18,8 km/h (3 Bft) 95,74 %
_ Min-Zeit 06:12 05:36 05:48 14:52 11:30 00:00 - - - - 01:56 04:26
Minimum _ -0,1 C -1,1 C -1,7 C 80 % 0 lf 1001,9 hPa - - - - 4,2 km/h (1 Bft) 84,78 %
_ Max-Zeit 13:54 11:48 12:34 08:32 00:00 23:44 10:20 08:20 14:36 11:48 14:34 00:02
Maximum _ 5,5 C 15,0 C 4,4 C 97 % 15 lf 1014,7 hPa 0,2 l/m 2 min 2 min 440 W/m 41,8 km/h
W-NW (6 Bft)
100,00 %
Durchschnitt _ 1,8 C 2,1 C 0,6 C 93 % 12 lf 1007,8 hPa #1,0 l/m #5:08 h #44 min. 78 W/m 14,5 km/h (3 Bft) 95,94 %
© 2015 W. Hausmann